Wetterdaten: Samstag, 07.10.2023
Datum Zeit Temp. Aussen Temp. o. S. Temp +5cm Feuchte Auss Luftdruck Regen Sonnenschein Regendauer Solar Windben Empfang
07.10.2023 00:00 15,2 C 14,4 C 10,6 C 85 % 1023,2 hPa 0,0 l/m 0 min 0 min 0 W/m 6,4 km/h (2 Bft) 91,49 %
07.10.2023 00:02 15,2 C 14,4 C 10,6 C 85 % 1023,3 hPa 0,0 l/m 0 min 0 min 0 W/m 16,1 km/h (3 Bft) 95,35 %
07.10.2023 00:04 15,2 C 14,4 C 10,6 C 85 % 1023,2 hPa 0,0 l/m 0 min 0 min 0 W/m 12,9 km/h (3 Bft) 97,96 %
07.10.2023 00:07 15,2 C 14,4 C 10,6 C 85 % 1023,3 hPa 0,0 l/m 0 min 0 min 0 W/m 9,7 km/h (2 Bft) 100,00 %
07.10.2023 00:08 15,2 C 14,4 C 10,6 C 85 % 1023,3 hPa 0,0 l/m 0 min 0 min 0 W/m 6,4 km/h (2 Bft) 95,65 %
07.10.2023 00:12 15,2 C 14,4 C 10,6 C 85 % 1023,3 hPa 0,0 l/m 0 min 0 min 0 W/m 12,9 km/h (3 Bft) 96,00 %
07.10.2023 00:14 15,2 C 14,4 C 10,6 C 85 % 1023,3 hPa 0,0 l/m 0 min 0 min 0 W/m 9,7 km/h (2 Bft) 100,00 %
07.10.2023 00:16 15,2 C 14,4 C 10,6 C 85 % 1023,3 hPa 0,0 l/m 0 min 0 min 0 W/m 9,7 km/h (2 Bft) 100,00 %
07.10.2023 00:18 15,2 C 14,4 C 10,6 C 85 % 1023,3 hPa 0,0 l/m 0 min 0 min 0 W/m 6,4 km/h (2 Bft) 97,87 %
07.10.2023 00:20 15,2 C 14,4 C 10,6 C 85 % 1023,3 hPa 0,0 l/m 0 min 0 min 0 W/m 12,9 km/h (3 Bft) 97,87 %
07.10.2023 00:22 15,2 C 14,4 C 10,6 C 85 % 1023,3 hPa 0,0 l/m 0 min 0 min 0 W/m 9,7 km/h (2 Bft) 100,00 %
07.10.2023 00:24 15,1 C 14,4 C 10,6 C 85 % 1023,2 hPa 0,0 l/m 0 min 0 min 0 W/m 6,4 km/h (2 Bft) 100,00 %
07.10.2023 00:26 15,1 C 14,4 C 10,6 C 85 % 1023,2 hPa 0,0 l/m 0 min 0 min 0 W/m 12,9 km/h (3 Bft) 100,00 %
07.10.2023 00:28 15,1 C 14,4 C 10,6 C 85 % 1023,1 hPa 0,0 l/m 0 min 0 min 0 W/m 16,1 km/h (3 Bft) 100,00 %
07.10.2023 00:30 15,1 C 14,4 C 10,6 C 84 % 1023,2 hPa 0,0 l/m 0 min 0 min 0 W/m 12,9 km/h (3 Bft) 100,00 %
07.10.2023 00:32 15,1 C 14,4 C 10,6 C 84 % 1023,1 hPa 0,0 l/m 0 min 0 min 0 W/m 12,9 km/h (3 Bft) 95,74 %
07.10.2023 00:34 15,1 C 14,4 C 10,6 C 84 % 1023,1 hPa 0,0 l/m 0 min 0 min 0 W/m 16,1 km/h (3 Bft) 100,00 %
07.10.2023 00:36 15,1 C 14,4 C 10,6 C 84 % 1023,0 hPa 0,0 l/m 0 min 0 min 0 W/m 12,9 km/h (3 Bft) 100,00 %
07.10.2023 00:38 15,1 C 14,4 C 10,6 C 84 % 1023,2 hPa 0,0 l/m 0 min 0 min 0 W/m 16,1 km/h (3 Bft) 97,87 %
07.10.2023 00:40 15,1 C 14,4 C 10,6 C 84 % 1023,1 hPa 0,0 l/m 0 min 0 min 0 W/m 12,9 km/h (3 Bft) 100,00 %
07.10.2023 00:42 15,1 C 14,4 C 10,6 C 84 % 1023,2 hPa 0,0 l/m 0 min 0 min 0 W/m 6,4 km/h (2 Bft) 97,87 %
07.10.2023 00:44 15,1 C 14,4 C 10,6 C 84 % 1023,2 hPa 0,0 l/m 0 min 0 min 0 W/m 12,9 km/h (3 Bft) 100,00 %
07.10.2023 00:46 15,1 C 14,4 C 10,6 C 84 % 1023,3 hPa 0,0 l/m 0 min 0 min 0 W/m 12,9 km/h (3 Bft) 100,00 %
07.10.2023 00:48 15,0 C 14,4 C 10,6 C 84 % 1023,3 hPa 0,0 l/m 0 min 0 min 0 W/m 9,7 km/h (2 Bft) 100,00 %
07.10.2023 00:50 15,0 C 14,4 C 10,6 C 84 % 1023,2 hPa 0,0 l/m 0 min 0 min 0 W/m 9,7 km/h (2 Bft) 100,00 %
07.10.2023 00:52 15,0 C 14,4 C 10,6 C 84 % 1023,1 hPa 0,0 l/m 0 min 0 min 0 W/m 9,7 km/h (2 Bft) 97,87 %
07.10.2023 00:54 15,0 C 14,4 C 10,6 C 84 % 1023,1 hPa 0,0 l/m 0 min 0 min 0 W/m 6,4 km/h (2 Bft) 100,00 %
07.10.2023 00:56 15,0 C 14,4 C 10,6 C 84 % 1023,1 hPa 0,0 l/m 0 min 0 min 0 W/m 12,9 km/h (3 Bft) 97,87 %
07.10.2023 00:58 15,0 C 14,4 C 10,6 C 84 % 1023,1 hPa 0,0 l/m 0 min 0 min 0 W/m 9,7 km/h (2 Bft) 97,87 %
07.10.2023 01:00 15,0 C 14,4 C 10,6 C 84 % 1023,2 hPa 0,0 l/m 0 min 0 min 0 W/m 12,9 km/h (3 Bft) 97,87 %
07.10.2023 01:02 15,0 C 14,4 C 10,6 C 84 % 1023,1 hPa 0,0 l/m 0 min 0 min 0 W/m 16,1 km/h (3 Bft) 97,87 %
07.10.2023 01:04 15,0 C 14,4 C 10,6 C 84 % 1023,1 hPa 0,0 l/m 0 min 0 min 0 W/m 22,5 km/h (4 Bft) 95,74 %
07.10.2023 01:06 15,0 C 14,4 C 10,6 C 84 % 1023,1 hPa 0,0 l/m 0 min 0 min 0 W/m 22,5 km/h (4 Bft) 95,74 %
07.10.2023 01:08 15,0 C 14,4 C 10,6 C 84 % 1023,1 hPa 0,0 l/m 0 min 0 min 0 W/m 9,7 km/h (2 Bft) 97,83 %
07.10.2023 01:10 15,0 C 14,4 C 10,6 C 84 % 1023,1 hPa 0,0 l/m 0 min 0 min 0 W/m 12,9 km/h (3 Bft) 97,87 %
07.10.2023 01:12 15,0 C 13,9 C 10,6 C 84 % 1023,1 hPa 0,0 l/m 0 min 0 min 0 W/m 6,4 km/h (2 Bft) 97,87 %
07.10.2023 01:14 14,9 C 13,9 C 10,6 C 84 % 1023,1 hPa 0,0 l/m 0 min 0 min 0 W/m 16,1 km/h (3 Bft) 97,92 %
07.10.2023 01:16 14,9 C 13,9 C 10,6 C 84 % 1023,0 hPa 0,0 l/m 0 min 0 min 0 W/m 16,1 km/h (3 Bft) 97,87 %
07.10.2023 01:18 14,9 C 13,9 C 10,6 C 84 % 1023,0 hPa 0,0 l/m 0 min 0 min 0 W/m 16,1 km/h (3 Bft) 95,74 %
07.10.2023 01:20 14,9 C 13,9 C 10,6 C 84 % 1022,9 hPa 0,0 l/m 0 min 0 min 0 W/m 12,9 km/h (3 Bft) 97,83 %
07.10.2023 01:22 14,9 C 13,9 C 10,6 C 84 % 1022,9 hPa 0,0 l/m 0 min 0 min 0 W/m 16,1 km/h (3 Bft) 97,22 %
07.10.2023 01:24 14,9 C 13,9 C 10,6 C 84 % 1022,9 hPa 0,0 l/m 0 min 0 min 0 W/m 16,1 km/h (3 Bft) 96,55 %
07.10.2023 01:26 14,9 C 13,9 C 10,6 C 84 % 1022,9 hPa 0,0 l/m 0 min 0 min 0 W/m 12,9 km/h (3 Bft) 97,14 %
07.10.2023 01:28 14,8 C 13,9 C 10,6 C 84 % 1022,9 hPa 0,0 l/m 0 min 0 min 0 W/m 16,1 km/h (3 Bft) 95,74 %
07.10.2023 01:30 14,8 C 13,9 C 10,6 C 85 % 1022,8 hPa 0,0 l/m 0 min 0 min 0 W/m 9,7 km/h (2 Bft) 95,74 %
07.10.2023 01:32 14,8 C 13,9 C 10,6 C 84 % 1022,9 hPa 0,0 l/m 0 min 0 min 0 W/m 16,1 km/h (3 Bft) 95,74 %
07.10.2023 01:34 14,8 C 13,9 C 10,6 C 85 % 1022,9 hPa 0,0 l/m 0 min 0 min 0 W/m 9,7 km/h (2 Bft) 95,74 %
07.10.2023 01:36 14,7 C 13,9 C 10,6 C 85 % 1022,9 hPa 0,0 l/m 0 min 0 min 0 W/m 16,1 km/h (3 Bft) 93,62 %
07.10.2023 01:38 14,7 C 13,9 C 10,6 C 85 % 1022,9 hPa 0,0 l/m 0 min 0 min 0 W/m 6,4 km/h (2 Bft) 97,87 %
07.10.2023 01:40 14,7 C 13,9 C 10,6 C 85 % 1022,9 hPa 0,0 l/m 0 min 0 min 0 W/m 9,7 km/h (2 Bft) 97,87 %
07.10.2023 01:42 14,7 C 13,9 C 10,6 C 85 % 1022,9 hPa 0,0 l/m 0 min 0 min 0 W/m 16,1 km/h (3 Bft) 97,87 %
07.10.2023 01:44 14,6 C 13,9 C 10,0 C 85 % 1022,9 hPa 0,0 l/m 0 min 0 min 0 W/m 6,4 km/h (2 Bft) 97,87 %
07.10.2023 01:46 14,6 C 13,9 C 10,0 C 85 % 1022,9 hPa 0,0 l/m 0 min 0 min 0 W/m 6,4 km/h (2 Bft) 97,83 %
07.10.2023 01:48 14,6 C 13,9 C 10,0 C 85 % 1023,0 hPa 0,0 l/m 0 min 0 min 0 W/m 12,9 km/h (3 Bft) 97,87 %
07.10.2023 01:50 14,6 C 13,9 C 10,0 C 86 % 1022,9 hPa 0,0 l/m 0 min 0 min 0 W/m 12,9 km/h (3 Bft) 97,87 %
07.10.2023 01:52 14,5 C 13,9 C 10,0 C 86 % 1023,0 hPa 0,0 l/m 0 min 0 min 0 W/m 12,9 km/h (3 Bft) 97,87 %
07.10.2023 01:54 14,5 C 13,9 C 10,0 C 86 % 1022,9 hPa 0,0 l/m 0 min 0 min 0 W/m 12,9 km/h (3 Bft) 100,00 %
07.10.2023 01:56 14,5 C 13,9 C 10,0 C 86 % 1022,9 hPa 0,0 l/m 0 min 0 min 0 W/m 6,4 km/h (2 Bft) 100,00 %
07.10.2023 01:58 14,4 C 13,9 C 10,0 C 86 % 1022,9 hPa 0,0 l/m 0 min 0 min 0 W/m 16,1 km/h (3 Bft) 100,00 %
07.10.2023 02:00 14,4 C 13,3 C 10,0 C 86 % 1022,9 hPa 0,0 l/m 0 min 0 min 0 W/m 6,4 km/h (2 Bft) 100,00 %
07.10.2023 02:02 14,4 C 13,3 C 10,0 C 86 % 1022,8 hPa 0,0 l/m 0 min 0 min 0 W/m 12,9 km/h (3 Bft) 100,00 %
07.10.2023 02:04 14,3 C 13,3 C 10,0 C 86 % 1022,9 hPa 0,0 l/m 0 min 0 min 0 W/m 16,1 km/h (3 Bft) 98,04 %
07.10.2023 02:06 14,3 C 13,3 C 10,0 C 87 % 1022,9 hPa 0,0 l/m 0 min 0 min 0 W/m 16,1 km/h (3 Bft) 100,00 %
07.10.2023 02:08 14,3 C 13,3 C 10,0 C 87 % 1022,9 hPa 0,0 l/m 0 min 0 min 0 W/m 9,7 km/h (2 Bft) 97,14 %
07.10.2023 02:10 14,3 C 13,3 C 10,0 C 87 % 1022,8 hPa 0,0 l/m 0 min 0 min 0 W/m 12,9 km/h (3 Bft) 100,00 %
07.10.2023 02:17 14,3 C 13,3 C 10,0 C 87 % 1023,0 hPa 0,0 l/m 0 min 0 min 0 W/m 16,1 km/h (3 Bft) 98,48 %
07.10.2023 02:18 14,3 C 13,3 C 10,0 C 87 % 1023,0 hPa 0,0 l/m 0 min 0 min 0 W/m 16,1 km/h (3 Bft) 100,00 %
07.10.2023 02:20 14,3 C 13,3 C 10,0 C 87 % 1022,9 hPa 0,0 l/m 0 min 0 min 0 W/m 16,1 km/h (3 Bft) 97,87 %
07.10.2023 02:22 14,3 C 13,3 C 10,0 C 87 % 1023,0 hPa 0,0 l/m 0 min 0 min 0 W/m 12,9 km/h (3 Bft) 97,87 %
07.10.2023 02:24 14,3 C 13,3 C 10,0 C 87 % 1022,9 hPa 0,0 l/m 0 min 0 min 0 W/m 12,9 km/h (3 Bft) 97,83 %
07.10.2023 02:26 14,3 C 13,3 C 10,0 C 87 % 1023,0 hPa 0,0 l/m 0 min 0 min 0 W/m 19,3 km/h (3 Bft) 95,74 %
07.10.2023 02:28 14,3 C 13,3 C 10,0 C 88 % 1022,9 hPa 0,0 l/m 0 min 0 min 0 W/m 16,1 km/h (3 Bft) 97,87 %
07.10.2023 02:30 14,3 C 13,3 C 10,0 C 88 % 1022,9 hPa 0,0 l/m 0 min 0 min 0 W/m 16,1 km/h (3 Bft) 97,87 %
07.10.2023 02:32 14,3 C 13,3 C 10,0 C 88 % 1022,9 hPa 0,0 l/m 0 min 0 min 0 W/m 6,4 km/h (2 Bft) 97,87 %
07.10.2023 02:34 14,3 C 13,3 C 10,0 C 88 % 1022,9 hPa 0,0 l/m 0 min 0 min 0 W/m 6,4 km/h (2 Bft) 97,83 %
07.10.2023 02:36 14,3 C 13,3 C 10,0 C 88 % 1022,9 hPa 0,0 l/m 0 min 0 min 0 W/m 9,7 km/h (2 Bft) 97,87 %
07.10.2023 02:38 14,3 C 13,3 C 10,0 C 88 % 1022,8 hPa 0,0 l/m 0 min 0 min 0 W/m 12,9 km/h (3 Bft) 95,74 %
07.10.2023 02:40 14,3 C 13,3 C 10,0 C 88 % 1022,8 hPa 0,0 l/m 0 min 0 min 0 W/m 12,9 km/h (3 Bft) 97,87 %
07.10.2023 02:42 14,2 C 13,3 C 10,0 C 88 % 1022,8 hPa 0,0 l/m 0 min 0 min 0 W/m 9,7 km/h (2 Bft) 95,74 %
07.10.2023 02:44 14,2 C 13,3 C 10,0 C 88 % 1022,8 hPa 0,0 l/m 0 min 0 min 0 W/m 12,9 km/h (3 Bft) 95,74 %
07.10.2023 02:46 14,2 C 13,3 C 10,0 C 89 % 1022,8 hPa 0,0 l/m 0 min 0 min 0 W/m 12,9 km/h (3 Bft) 95,65 %
07.10.2023 02:48 14,3 C 13,3 C 10,0 C 89 % 1022,8 hPa 0,0 l/m 0 min 0 min 0 W/m 12,9 km/h (3 Bft) 97,87 %
07.10.2023 02:50 14,3 C 13,3 C 10,0 C 89 % 1022,8 hPa 0,0 l/m 0 min 0 min 0 W/m 9,7 km/h (2 Bft) 97,87 %
07.10.2023 02:52 14,3 C 13,3 C 10,0 C 89 % 1022,8 hPa 0,0 l/m 0 min 0 min 0 W/m 12,9 km/h (3 Bft) 100,00 %
07.10.2023 02:54 14,2 C 13,3 C 10,0 C 89 % 1022,7 hPa 0,0 l/m 0 min 0 min 0 W/m 12,9 km/h (3 Bft) 97,87 %
07.10.2023 02:56 14,2 C 13,3 C 10,0 C 89 % 1022,8 hPa 0,0 l/m 0 min 0 min 0 W/m 12,9 km/h (3 Bft) 100,00 %
07.10.2023 02:58 14,2 C 13,3 C 10,0 C 89 % 1022,6 hPa 0,0 l/m 0 min 0 min 0 W/m 12,9 km/h (3 Bft) 97,83 %
07.10.2023 03:00 14,2 C 13,3 C 10,0 C 89 % 1022,7 hPa 0,0 l/m 0 min 0 min 0 W/m 19,3 km/h (3 Bft) 91,49 %
07.10.2023 03:02 14,2 C 13,3 C 10,0 C 89 % 1022,6 hPa 0,0 l/m 0 min 0 min 0 W/m 16,1 km/h (3 Bft) 97,87 %
07.10.2023 03:04 14,3 C 13,3 C 10,0 C 89 % 1022,5 hPa 0,0 l/m 0 min 0 min 0 W/m 22,5 km/h (4 Bft) 100,00 %
07.10.2023 03:06 14,3 C 13,3 C 10,0 C 89 % 1022,6 hPa 0,0 l/m 0 min 0 min 0 W/m 6,4 km/h (2 Bft) 100,00 %
07.10.2023 03:08 14,3 C 13,3 C 10,0 C 89 % 1022,5 hPa 0,0 l/m 0 min 0 min 0 W/m 12,9 km/h (3 Bft) 97,87 %
07.10.2023 03:10 14,2 C 13,3 C 10,0 C 89 % 1022,4 hPa 0,0 l/m 0 min 0 min 0 W/m 6,4 km/h (2 Bft) 97,87 %
07.10.2023 03:12 14,2 C 13,3 C 10,0 C 89 % 1022,4 hPa 0,0 l/m 0 min 0 min 0 W/m 12,9 km/h (3 Bft) 100,00 %
07.10.2023 03:14 14,2 C 13,3 C 10,0 C 89 % 1022,4 hPa 0,0 l/m 0 min 0 min 0 W/m 9,7 km/h (2 Bft) 95,74 %
07.10.2023 03:16 14,2 C 13,3 C 10,0 C 89 % 1022,2 hPa 0,0 l/m 0 min 0 min 0 W/m 12,9 km/h (3 Bft) 95,65 %
07.10.2023 03:18 14,2 C 13,3 C 10,0 C 89 % 1022,2 hPa 0,0 l/m 0 min 0 min 0 W/m 16,1 km/h (3 Bft) 97,87 %
07.10.2023 03:20 14,2 C 13,3 C 10,0 C 89 % 1022,3 hPa 0,0 l/m 0 min 0 min 0 W/m 9,7 km/h (2 Bft) 95,74 %
07.10.2023 03:22 14,2 C 13,3 C 10,0 C 89 % 1022,5 hPa 0,0 l/m 0 min 0 min 0 W/m 12,9 km/h (3 Bft) 97,87 %
07.10.2023 03:24 14,2 C 13,3 C 10,0 C 90 % 1022,5 hPa 0,0 l/m 0 min 0 min 0 W/m 19,3 km/h (3 Bft) 95,74 %
07.10.2023 03:26 14,2 C 13,3 C 10,0 C 90 % 1022,4 hPa 0,0 l/m 0 min 0 min 0 W/m 9,7 km/h (2 Bft) 95,74 %
07.10.2023 03:28 14,2 C 13,3 C 10,0 C 90 % 1022,5 hPa 0,0 l/m 0 min 0 min 0 W/m 9,7 km/h (2 Bft) 95,74 %
07.10.2023 03:30 14,2 C 13,3 C 10,0 C 90 % 1022,6 hPa 0,0 l/m 0 min 0 min 0 W/m 16,1 km/h (3 Bft) 95,74 %
07.10.2023 03:32 14,2 C 13,3 C 10,0 C 90 % 1022,5 hPa 0,0 l/m 0 min 0 min 0 W/m 12,9 km/h (3 Bft) 93,62 %
07.10.2023 03:34 14,2 C 13,3 C 10,0 C 90 % 1022,4 hPa 0,0 l/m 0 min 0 min 0 W/m 6,4 km/h (2 Bft) 95,65 %
07.10.2023 03:36 14,2 C 13,3 C 10,0 C 90 % 1022,5 hPa 0,0 l/m 0 min 0 min 0 W/m 9,7 km/h (2 Bft) 93,62 %
07.10.2023 03:38 14,2 C 13,3 C 10,0 C 90 % 1022,5 hPa 0,0 l/m 0 min 0 min 0 W/m 12,9 km/h (3 Bft) 93,62 %
07.10.2023 03:40 14,2 C 13,3 C 10,0 C 90 % 1022,4 hPa 0,0 l/m 0 min 0 min 0 W/m 6,4 km/h (2 Bft) 95,74 %
07.10.2023 03:42 14,1 C 13,3 C 10,0 C 90 % 1022,4 hPa 0,0 l/m 0 min 0 min 0 W/m 9,7 km/h (2 Bft) 95,74 %
07.10.2023 03:44 14,1 C 13,3 C 10,0 C 90 % 1022,4 hPa 0,0 l/m 0 min 0 min 0 W/m 16,1 km/h (3 Bft) 93,62 %
07.10.2023 03:46 14,1 C 13,3 C 10,0 C 90 % 1022,3 hPa 0,0 l/m 0 min 0 min 0 W/m 16,1 km/h (3 Bft) 95,74 %
07.10.2023 03:48 14,1 C 13,3 C 10,0 C 91 % 1022,4 hPa 0,0 l/m 0 min 0 min 0 W/m 9,7 km/h (2 Bft) 97,87 %
07.10.2023 03:50 14,1 C 13,3 C 10,0 C 91 % 1022,5 hPa 0,0 l/m 0 min 0 min 0 W/m 12,9 km/h (3 Bft) 97,96 %
07.10.2023 03:52 14,1 C 13,3 C 10,0 C 91 % 1022,3 hPa 0,0 l/m 0 min 0 min 0 W/m 16,1 km/h (3 Bft) 95,92 %
07.10.2023 03:54 14,1 C 13,3 C 10,0 C 91 % 1022,3 hPa 0,0 l/m 0 min 0 min 0 W/m 9,7 km/h (2 Bft) 100,00 %
07.10.2023 03:56 14,1 C 13,3 C 10,0 C 91 % 1022,2 hPa 0,0 l/m 0 min 0 min 0 W/m 9,7 km/h (2 Bft) 95,74 %
07.10.2023 03:58 14,1 C 13,3 C 10,0 C 91 % 1022,2 hPa 0,0 l/m 0 min 0 min 0 W/m 9,7 km/h (2 Bft) 97,92 %
07.10.2023 04:00 14,1 C 13,3 C 10,0 C 91 % 1022,2 hPa 0,0 l/m 0 min 0 min 0 W/m 12,9 km/h (3 Bft) 95,74 %
07.10.2023 04:02 14,1 C 13,3 C 10,0 C 91 % 1022,3 hPa 0,0 l/m 0 min 0 min 0 W/m 12,9 km/h (3 Bft) 97,87 %
07.10.2023 04:04 14,1 C 13,3 C 10,0 C 91 % 1022,3 hPa 0,0 l/m 0 min 0 min 0 W/m 6,4 km/h (2 Bft) 98,11 %
07.10.2023 04:08 14,1 C 13,3 C 10,0 C 91 % 1022,4 hPa 0,0 l/m 0 min 0 min 0 W/m 16,1 km/h (3 Bft) 100,00 %
07.10.2023 04:09 14,1 C 13,3 C 10,0 C 91 % 1022,3 hPa 0,0 l/m 0 min 0 min 0 W/m 12,9 km/h (3 Bft) 95,83 %
07.10.2023 04:12 14,1 C 13,3 C 10,0 C 91 % 1022,4 hPa 0,0 l/m 0 min 0 min 0 W/m 12,9 km/h (3 Bft) 100,00 %
07.10.2023 04:14 14,1 C 13,3 C 10,0 C 91 % 1022,4 hPa 0,0 l/m 0 min 0 min 0 W/m 16,1 km/h (3 Bft) 100,00 %
07.10.2023 04:16 14,1 C 13,3 C 10,0 C 91 % 1022,5 hPa 0,0 l/m 0 min 0 min 0 W/m 12,9 km/h (3 Bft) 100,00 %
07.10.2023 04:18 14,1 C 13,3 C 10,0 C 91 % 1022,5 hPa 0,0 l/m 0 min 0 min 0 W/m 16,1 km/h (3 Bft) 100,00 %
07.10.2023 04:20 14,1 C 13,3 C 10,0 C 91 % 1022,6 hPa 0,0 l/m 0 min 0 min 0 W/m 12,9 km/h (3 Bft) 100,00 %
07.10.2023 04:22 14,1 C 13,3 C 10,0 C 91 % 1022,6 hPa 0,0 l/m 0 min 0 min 0 W/m 9,7 km/h (2 Bft) 100,00 %
07.10.2023 04:24 14,0 C 13,3 C 10,0 C 91 % 1022,6 hPa 0,0 l/m 0 min 0 min 0 W/m 12,9 km/h (3 Bft) 100,00 %
07.10.2023 04:26 14,0 C 13,3 C 10,0 C 92 % 1022,5 hPa 0,0 l/m 0 min 0 min 0 W/m 12,9 km/h (3 Bft) 97,87 %
07.10.2023 04:28 14,0 C 13,3 C 10,0 C 92 % 1022,6 hPa 0,0 l/m 0 min 0 min 0 W/m 16,1 km/h (3 Bft) 100,00 %
07.10.2023 04:30 14,1 C 13,3 C 10,0 C 92 % 1022,5 hPa 0,0 l/m 0 min 0 min 0 W/m 12,9 km/h (3 Bft) 100,00 %
07.10.2023 04:32 14,1 C 13,3 C 10,0 C 92 % 1022,5 hPa 0,0 l/m 0 min 0 min 0 W/m 12,9 km/h (3 Bft) 97,87 %
07.10.2023 04:34 14,1 C 13,3 C 10,0 C 92 % 1022,4 hPa 0,0 l/m 0 min 0 min 0 W/m 19,3 km/h (3 Bft) 97,87 %
07.10.2023 04:36 14,1 C 13,3 C 10,0 C 92 % 1022,4 hPa 0,0 l/m 0 min 0 min 0 W/m 6,4 km/h (2 Bft) 97,87 %
07.10.2023 04:38 14,1 C 13,3 C 10,0 C 92 % 1022,4 hPa 0,0 l/m 0 min 0 min 0 W/m 9,7 km/h (2 Bft) 100,00 %
07.10.2023 04:40 14,0 C 13,3 C 10,0 C 92 % 1022,4 hPa 0,0 l/m 0 min 0 min 0 W/m 12,9 km/h (3 Bft) 100,00 %
07.10.2023 04:42 14,1 C 13,3 C 10,0 C 92 % 1022,4 hPa 0,0 l/m 0 min 0 min 0 W/m 16,1 km/h (3 Bft) 100,00 %
07.10.2023 04:44 14,1 C 13,3 C 10,0 C 92 % 1022,3 hPa 0,0 l/m 0 min 0 min 0 W/m 9,7 km/h (2 Bft) 100,00 %
07.10.2023 04:46 14,1 C 13,3 C 10,0 C 92 % 1022,3 hPa 0,0 l/m 0 min 0 min 0 W/m 6,4 km/h (2 Bft) 100,00 %
07.10.2023 04:48 14,0 C 13,3 C 10,0 C 92 % 1022,3 hPa 0,0 l/m 0 min 0 min 0 W/m 12,9 km/h (3 Bft) 100,00 %
07.10.2023 04:50 14,0 C 13,3 C 10,0 C 92 % 1022,3 hPa 0,0 l/m 0 min 0 min 0 W/m 9,7 km/h (2 Bft) 100,00 %
07.10.2023 04:52 14,0 C 13,3 C 10,0 C 92 % 1022,3 hPa 0,0 l/m 0 min 0 min 0 W/m 9,7 km/h (2 Bft) 100,00 %
07.10.2023 04:54 14,1 C 13,3 C 10,0 C 92 % 1022,4 hPa 0,0 l/m 0 min 0 min 0 W/m 19,3 km/h (3 Bft) 100,00 %
07.10.2023 04:56 14,1 C 13,3 C 10,0 C 92 % 1022,5 hPa 0,0 l/m 0 min 0 min 0 W/m 12,9 km/h (3 Bft) 100,00 %
07.10.2023 04:58 14,1 C 13,3 C 10,0 C 92 % 1022,4 hPa 0,0 l/m 0 min 0 min 0 W/m 6,4 km/h (2 Bft) 100,00 %
07.10.2023 05:00 14,1 C 13,3 C 10,0 C 92 % 1022,5 hPa 0,0 l/m 0 min 0 min 0 W/m 6,4 km/h (2 Bft) 100,00 %
07.10.2023 05:02 14,1 C 13,3 C 10,0 C 92 % 1022,5 hPa 0,0 l/m 0 min 0 min 0 W/m 6,4 km/h (2 Bft) 97,83 %
07.10.2023 05:04 14,1 C 13,3 C 10,0 C 93 % 1022,5 hPa 0,0 l/m 0 min 0 min 0 W/m 6,4 km/h (2 Bft) 98,11 %
07.10.2023 05:06 14,1 C 13,3 C 10,0 C 93 % 1022,5 hPa 0,0 l/m 0 min 0 min 0 W/m 6,4 km/h (2 Bft) 97,83 %
07.10.2023 05:08 14,1 C 13,3 C 10,0 C 93 % 1022,3 hPa 0,0 l/m 0 min 0 min 0 W/m 6,4 km/h (2 Bft) 97,87 %
07.10.2023 05:10 14,1 C 13,3 C 10,0 C 93 % 1022,2 hPa 0,0 l/m 0 min 0 min 0 W/m 9,7 km/h (2 Bft) 96,00 %
07.10.2023 05:12 14,1 C 13,3 C 10,0 C 93 % 1022,4 hPa 0,0 l/m 0 min 0 min 0 W/m 12,9 km/h (3 Bft) 95,74 %
07.10.2023 05:14 14,1 C 13,3 C 10,0 C 93 % 1022,5 hPa 0,0 l/m 0 min 0 min 0 W/m 16,1 km/h (3 Bft) 93,62 %
07.10.2023 05:16 14,1 C 13,3 C 10,0 C 93 % 1022,5 hPa 0,0 l/m 0 min 0 min 0 W/m 6,4 km/h (2 Bft) 95,65 %
07.10.2023 05:18 14,1 C 13,3 C 10,0 C 93 % 1022,4 hPa 0,0 l/m 0 min 0 min 0 W/m 6,4 km/h (2 Bft) 95,74 %
07.10.2023 05:20 14,2 C 13,3 C 10,0 C 93 % 1022,5 hPa 0,0 l/m 0 min 0 min 0 W/m 19,3 km/h (3 Bft) 95,74 %
07.10.2023 05:22 14,2 C 13,3 C 10,0 C 93 % 1022,4 hPa 0,0 l/m 0 min 0 min 0 W/m 9,7 km/h (2 Bft) 95,74 %
07.10.2023 05:24 14,2 C 13,3 C 10,0 C 93 % 1022,4 hPa 0,0 l/m 0 min 0 min 0 W/m 6,4 km/h (2 Bft) 94,29 %
07.10.2023 05:26 14,2 C 13,3 C 10,0 C 93 % 1022,5 hPa 0,0 l/m 0 min 0 min 0 W/m 3,2 km/h (1 Bft) 96,61 %
07.10.2023 05:28 14,2 C 13,3 C 10,0 C 93 % 1022,5 hPa 0,0 l/m 0 min 0 min 0 W/m 6,4 km/h (2 Bft) 95,74 %
07.10.2023 05:30 14,2 C 13,3 C 10,0 C 93 % 1022,4 hPa 0,0 l/m 0 min 0 min 0 W/m 12,9 km/h (3 Bft) 94,29 %
07.10.2023 05:32 14,3 C 13,3 C 10,0 C 93 % 1022,4 hPa 0,0 l/m 0 min 0 min 0 W/m 16,1 km/h (3 Bft) 95,74 %
07.10.2023 05:34 14,3 C 13,3 C 10,0 C 93 % 1022,4 hPa 0,0 l/m 0 min 0 min 0 W/m 9,7 km/h (2 Bft) 93,62 %
07.10.2023 05:36 14,3 C 13,3 C 10,0 C 93 % 1022,4 hPa 0,0 l/m 0 min 0 min 0 W/m 6,4 km/h (2 Bft) 97,83 %
07.10.2023 05:38 14,3 C 13,3 C 10,0 C 93 % 1022,4 hPa 0,0 l/m 0 min 0 min 0 W/m 3,2 km/h (1 Bft) 95,74 %
07.10.2023 05:40 14,3 C 13,3 C 10,0 C 93 % 1022,3 hPa 0,0 l/m 0 min 0 min 0 W/m 9,7 km/h (2 Bft) 97,87 %
07.10.2023 05:42 14,3 C 13,3 C 10,0 C 93 % 1022,5 hPa 0,0 l/m 0 min 0 min 0 W/m 6,4 km/h (2 Bft) 97,87 %
07.10.2023 05:44 14,3 C 13,3 C 10,0 C 93 % 1022,4 hPa 0,0 l/m 0 min 0 min 0 W/m 16,1 km/h (3 Bft) 93,62 %
07.10.2023 05:46 14,3 C 13,9 C 10,0 C 93 % 1022,4 hPa 0,0 l/m 0 min 0 min 0 W/m 12,9 km/h (3 Bft) 95,74 %
07.10.2023 05:48 14,3 C 13,9 C 10,0 C 93 % 1022,4 hPa 0,0 l/m 0 min 0 min 0 W/m 12,9 km/h (3 Bft) 97,87 %
07.10.2023 05:50 14,3 C 13,9 C 10,0 C 93 % 1022,3 hPa 0,0 l/m 0 min 0 min 0 W/m 6,4 km/h (2 Bft) 97,87 %
07.10.2023 05:52 14,3 C 13,9 C 10,0 C 93 % 1022,4 hPa 0,0 l/m 0 min 0 min 0 W/m 12,9 km/h (3 Bft) 97,83 %
07.10.2023 05:54 14,3 C 13,9 C 10,0 C 93 % 1022,4 hPa 0,0 l/m 0 min 0 min 0 W/m 3,2 km/h (1 Bft) 95,74 %
07.10.2023 05:56 14,3 C 13,9 C 10,0 C 93 % 1022,5 hPa 0,0 l/m 0 min 0 min 0 W/m 12,9 km/h (3 Bft) 93,62 %
07.10.2023 05:58 14,3 C 13,9 C 10,0 C 93 % 1022,4 hPa 0,0 l/m 0 min 0 min 0 W/m 9,7 km/h (2 Bft) 95,74 %
07.10.2023 06:00 14,3 C 13,9 C 10,0 C 93 % 1022,5 hPa 0,0 l/m 0 min 0 min 0 W/m 16,1 km/h (3 Bft) 95,74 %
07.10.2023 06:02 14,3 C 13,9 C 10,0 C 93 % 1022,5 hPa 0,0 l/m 0 min 0 min 0 W/m 12,9 km/h (3 Bft) 97,87 %
07.10.2023 06:04 14,3 C 13,9 C 10,0 C 93 % 1022,4 hPa 0,0 l/m 0 min 0 min 0 W/m 19,3 km/h (3 Bft) 97,96 %
07.10.2023 06:08 14,3 C 13,9 C 10,0 C 93 % 1022,4 hPa 0,0 l/m 0 min 0 min 0 W/m 22,5 km/h (4 Bft) 95,70 %
07.10.2023 06:10 14,3 C 13,9 C 10,6 C 93 % 1022,4 hPa 0,0 l/m 0 min 0 min 0 W/m 16,1 km/h (3 Bft) 97,87 %
07.10.2023 06:12 14,3 C 13,9 C 10,6 C 93 % 1022,4 hPa 0,0 l/m 0 min 0 min 0 W/m 12,9 km/h (3 Bft) 95,74 %
07.10.2023 06:14 14,4 C 13,9 C 10,6 C 93 % 1022,4 hPa 0,0 l/m 0 min 0 min 0 W/m 9,7 km/h (2 Bft) 97,87 %
07.10.2023 06:16 14,4 C 13,9 C 10,6 C 93 % 1022,4 hPa 0,0 l/m 0 min 0 min 0 W/m 12,9 km/h (3 Bft) 95,74 %
07.10.2023 06:18 14,4 C 13,9 C 10,6 C 93 % 1022,3 hPa 0,0 l/m 0 min 0 min 0 W/m 16,1 km/h (3 Bft) 97,87 %
07.10.2023 06:20 14,4 C 13,9 C 10,6 C 93 % 1022,4 hPa 0,0 l/m 0 min 0 min 0 W/m 6,4 km/h (2 Bft) 95,74 %
07.10.2023 06:22 14,4 C 13,9 C 10,6 C 93 % 1022,3 hPa 0,0 l/m 0 min 0 min 0 W/m 9,7 km/h (2 Bft) 97,83 %
07.10.2023 06:24 14,4 C 13,9 C 10,6 C 93 % 1022,2 hPa 0,0 l/m 0 min 0 min 0 W/m 9,7 km/h (2 Bft) 97,87 %
07.10.2023 06:26 14,4 C 13,9 C 10,6 C 93 % 1022,2 hPa 0,0 l/m 0 min 0 min 0 W/m 9,7 km/h (2 Bft) 95,74 %
07.10.2023 06:28 14,4 C 13,9 C 10,6 C 93 % 1022,2 hPa 0,0 l/m 0 min 0 min 0 W/m 19,3 km/h (3 Bft) 97,87 %
07.10.2023 06:30 14,4 C 13,9 C 10,6 C 93 % 1022,2 hPa 0,0 l/m 0 min 0 min 0 W/m 25,7 km/h (4 Bft) 97,87 %
07.10.2023 06:32 14,4 C 13,9 C 10,6 C 93 % 1022,2 hPa 0,0 l/m 0 min 0 min 0 W/m 9,7 km/h (2 Bft) 95,74 %
07.10.2023 06:34 14,4 C 13,9 C 10,6 C 93 % 1022,2 hPa 0,0 l/m 0 min 0 min 0 W/m 16,1 km/h (3 Bft) 97,87 %
07.10.2023 06:36 14,4 C 13,9 C 10,6 C 93 % 1022,2 hPa 0,0 l/m 0 min 0 min 0 W/m 6,4 km/h (2 Bft) 97,83 %
07.10.2023 06:38 14,5 C 13,9 C 10,6 C 93 % 1022,2 hPa 0,0 l/m 0 min 0 min 0 W/m 22,5 km/h (4 Bft) 93,62 %
07.10.2023 06:40 14,5 C 13,9 C 10,6 C 93 % 1022,2 hPa 0,0 l/m 0 min 0 min 0 W/m 12,9 km/h (3 Bft) 97,87 %
07.10.2023 06:42 14,5 C 13,9 C 10,6 C 93 % 1022,1 hPa 0,0 l/m 0 min 0 min 0 W/m 16,1 km/h (3 Bft) 100,00 %
07.10.2023 06:44 14,5 C 13,9 C 10,6 C 93 % 1022,1 hPa 0,0 l/m 0 min 0 min 0 W/m 9,7 km/h (2 Bft) 97,87 %
07.10.2023 06:46 14,5 C 13,9 C 10,6 C 93 % 1022,2 hPa 0,0 l/m 0 min 0 min 0 W/m 6,4 km/h (2 Bft) 100,00 %
07.10.2023 06:48 14,5 C 13,9 C 10,6 C 93 % 1022,1 hPa 0,0 l/m 0 min 0 min 0 W/m 12,9 km/h (3 Bft) 100,00 %
07.10.2023 06:50 14,5 C 13,9 C 10,6 C 93 % 1022,1 hPa 0,0 l/m 0 min 0 min 0 W/m 6,4 km/h (2 Bft) 97,87 %
07.10.2023 06:52 14,5 C 13,9 C 10,6 C 93 % 1022,0 hPa 0,0 l/m 0 min 0 min 0 W/m 6,4 km/h (2 Bft) 100,00 %
07.10.2023 06:54 14,5 C 13,9 C 10,6 C 93 % 1022,0 hPa 0,0 l/m 0 min 0 min 0 W/m 16,1 km/h (3 Bft) 100,00 %
07.10.2023 06:56 14,6 C 13,9 C 10,6 C 93 % 1022,0 hPa 0,0 l/m 0 min 0 min 0 W/m 22,5 km/h (4 Bft) 97,87 %
07.10.2023 06:58 14,6 C 13,9 C 10,6 C 93 % 1022,0 hPa 0,0 l/m 0 min 0 min 0 W/m 6,4 km/h (2 Bft) 97,87 %
07.10.2023 07:00 14,6 C 13,9 C 10,6 C 93 % 1022,0 hPa 0,0 l/m 0 min 0 min 0 W/m 12,9 km/h (3 Bft) 95,74 %
07.10.2023 07:02 14,6 C 13,9 C 10,6 C 93 % 1022,1 hPa 0,0 l/m 0 min 0 min 0 W/m 6,4 km/h (2 Bft) 95,74 %
07.10.2023 07:04 14,6 C 13,9 C 10,6 C 93 % 1022,0 hPa 0,0 l/m 0 min 0 min 0 W/m 19,3 km/h (3 Bft) 97,92 %
07.10.2023 07:06 14,6 C 13,9 C 10,6 C 93 % 1022,0 hPa 0,0 l/m 0 min 0 min 0 W/m 12,9 km/h (3 Bft) 95,65 %
07.10.2023 07:08 14,6 C 13,9 C 10,6 C 93 % 1022,1 hPa 0,0 l/m 0 min 0 min 0 W/m 6,4 km/h (2 Bft) 95,74 %
07.10.2023 07:10 14,6 C 13,9 C 10,6 C 93 % 1022,0 hPa 0,0 l/m 0 min 0 min 0 W/m 16,1 km/h (3 Bft) 97,87 %
07.10.2023 07:12 14,6 C 13,9 C 10,6 C 93 % 1022,0 hPa 0,0 l/m 0 min 0 min 0 W/m 12,9 km/h (3 Bft) 97,87 %
07.10.2023 07:14 14,6 C 13,9 C 10,6 C 93 % 1021,9 hPa 0,0 l/m 0 min 0 min 0 W/m 6,4 km/h (2 Bft) 95,74 %
07.10.2023 07:16 14,6 C 13,9 C 10,6 C 93 % 1021,9 hPa 0,0 l/m 0 min 0 min 0 W/m 6,4 km/h (2 Bft) 97,87 %
07.10.2023 07:18 14,6 C 13,9 C 10,6 C 93 % 1022,0 hPa 0,0 l/m 0 min 0 min 0 W/m 6,4 km/h (2 Bft) 97,87 %
07.10.2023 07:20 14,6 C 13,9 C 10,6 C 93 % 1022,0 hPa 0,0 l/m 0 min 0 min 0 W/m 6,4 km/h (2 Bft) 95,65 %
07.10.2023 07:22 14,6 C 13,9 C 10,6 C 93 % 1022,0 hPa 0,0 l/m 0 min 0 min 0 W/m 6,4 km/h (2 Bft) 97,87 %
07.10.2023 07:24 14,6 C 13,9 C 10,6 C 93 % 1022,1 hPa 0,0 l/m 0 min 0 min 0 W/m 9,7 km/h (2 Bft) 97,87 %
07.10.2023 07:26 14,6 C 13,9 C 10,6 C 93 % 1022,1 hPa 0,0 l/m 0 min 0 min 0 W/m 9,7 km/h (2 Bft) 95,74 %
07.10.2023 07:28 14,6 C 13,9 C 10,6 C 93 % 1022,1 hPa 0,0 l/m 0 min 0 min 0 W/m 6,4 km/h (2 Bft) 97,87 %
07.10.2023 07:30 14,6 C 13,9 C 10,6 C 93 % 1022,0 hPa 0,0 l/m 0 min 0 min 0 W/m 6,4 km/h (2 Bft) 97,87 %
07.10.2023 07:32 14,6 C 13,9 C 10,6 C 93 % 1022,0 hPa 0,0 l/m 0 min 0 min 0 W/m 12,9 km/h (3 Bft) 97,87 %
07.10.2023 07:34 14,6 C 13,9 C 10,6 C 93 % 1022,0 hPa 0,0 l/m 0 min 0 min 0 W/m 12,9 km/h (3 Bft) 100,00 %
07.10.2023 07:36 14,6 C 13,9 C 10,6 C 93 % 1022,0 hPa 0,0 l/m 0 min 0 min 0 W/m 12,9 km/h (3 Bft) 100,00 %
07.10.2023 07:38 14,6 C 13,9 C 10,6 C 93 % 1022,0 hPa 0,0 l/m 0 min 0 min 0 W/m 6,4 km/h (2 Bft) 97,87 %
07.10.2023 07:40 14,6 C 13,9 C 10,6 C 93 % 1022,1 hPa 0,0 l/m 0 min 0 min 0 W/m 12,9 km/h (3 Bft) 97,87 %
07.10.2023 07:42 14,6 C 13,9 C 10,6 C 93 % 1022,2 hPa 0,0 l/m 0 min 0 min 0 W/m 6,4 km/h (2 Bft) 100,00 %
07.10.2023 07:44 14,6 C 13,9 C 10,6 C 93 % 1022,4 hPa 0,0 l/m 0 min 0 min 0 W/m 9,7 km/h (2 Bft) 97,87 %
07.10.2023 07:46 14,6 C 13,9 C 10,6 C 93 % 1022,4 hPa 0,0 l/m 0 min 0 min 0 W/m 6,4 km/h (2 Bft) 97,87 %
07.10.2023 07:48 14,6 C 13,9 C 10,6 C 93 % 1022,4 hPa 0,0 l/m 0 min 0 min 0 W/m 16,1 km/h (3 Bft) 100,00 %
07.10.2023 07:50 14,6 C 13,9 C 10,6 C 93 % 1022,3 hPa 0,0 l/m 0 min 0 min 0 W/m 9,7 km/h (2 Bft) 100,00 %
07.10.2023 07:52 14,6 C 13,9 C 10,6 C 93 % 1022,3 hPa 0,0 l/m 0 min 0 min 0 W/m 12,9 km/h (3 Bft) 97,87 %
07.10.2023 07:54 14,6 C 13,9 C 10,6 C 93 % 1022,3 hPa 0,0 l/m 0 min 0 min 0 W/m 12,9 km/h (3 Bft) 100,00 %
07.10.2023 07:56 14,6 C 13,9 C 10,6 C 93 % 1022,4 hPa 0,0 l/m 0 min 0 min 4 W/m 9,7 km/h (2 Bft) 100,00 %
07.10.2023 07:58 14,6 C 13,9 C 10,6 C 93 % 1022,4 hPa 0,0 l/m 0 min 0 min 5 W/m 9,7 km/h (2 Bft) 100,00 %
07.10.2023 08:00 14,6 C 13,9 C 10,6 C 93 % 1022,4 hPa 0,0 l/m 0 min 0 min 7 W/m 6,4 km/h (2 Bft) 97,87 %
07.10.2023 08:02 14,6 C 13,9 C 10,6 C 93 % 1022,4 hPa 0,0 l/m 0 min 0 min 7 W/m 12,9 km/h (3 Bft) 100,00 %
07.10.2023 08:04 14,6 C 13,9 C 10,6 C 93 % 1022,4 hPa 0,0 l/m 0 min 0 min 8 W/m 12,9 km/h (3 Bft) 95,83 %
07.10.2023 08:06 14,6 C 13,9 C 10,6 C 93 % 1022,4 hPa 0,0 l/m 0 min 0 min 10 W/m 6,4 km/h (2 Bft) 95,74 %
07.10.2023 08:08 14,6 C 13,9 C 10,6 C 93 % 1022,4 hPa 0,0 l/m 0 min 0 min 11 W/m 19,3 km/h (3 Bft) 97,83 %
07.10.2023 08:10 14,6 C 13,9 C 10,6 C 93 % 1022,4 hPa 0,0 l/m 0 min 0 min 12 W/m 12,9 km/h (3 Bft) 95,74 %
07.10.2023 08:12 14,6 C 13,9 C 10,6 C 93 % 1022,4 hPa 0,0 l/m 0 min 0 min 12 W/m 6,4 km/h (2 Bft) 95,74 %
07.10.2023 08:14 14,6 C 13,9 C 10,6 C 93 % 1022,4 hPa 0,0 l/m 0 min 0 min 12 W/m 9,7 km/h (2 Bft) 95,74 %
07.10.2023 08:16 14,6 C 13,9 C 10,6 C 93 % 1022,4 hPa 0,0 l/m 0 min 0 min 14 W/m 12,9 km/h (3 Bft) 97,87 %
07.10.2023 08:18 14,7 C 13,9 C 10,6 C 93 % 1022,4 hPa 0,0 l/m 0 min 0 min 14 W/m 12,9 km/h (3 Bft) 97,87 %
07.10.2023 08:20 14,7 C 13,9 C 10,6 C 93 % 1022,4 hPa 0,0 l/m 0 min 0 min 13 W/m 12,9 km/h (3 Bft) 97,87 %
07.10.2023 08:22 14,7 C 13,9 C 10,6 C 93 % 1022,4 hPa 0,0 l/m 0 min 0 min 14 W/m 12,9 km/h (3 Bft) 95,74 %
07.10.2023 08:24 14,7 C 13,9 C 10,6 C 93 % 1022,4 hPa 0,0 l/m 0 min 0 min 16 W/m 6,4 km/h (2 Bft) 97,83 %
07.10.2023 08:26 14,7 C 13,9 C 10,6 C 93 % 1022,4 hPa 0,0 l/m 0 min 0 min 16 W/m 6,4 km/h (2 Bft) 97,87 %
07.10.2023 08:28 14,7 C 13,9 C 10,6 C 93 % 1022,4 hPa 0,0 l/m 0 min 0 min 15 W/m 6,4 km/h (2 Bft) 95,74 %
07.10.2023 08:30 14,7 C 13,9 C 10,6 C 93 % 1022,4 hPa 0,0 l/m 0 min 0 min 14 W/m 19,3 km/h (3 Bft) 97,87 %
07.10.2023 08:32 14,7 C 13,9 C 10,6 C 93 % 1022,4 hPa 0,0 l/m 0 min 0 min 16 W/m 9,7 km/h (2 Bft) 95,74 %
07.10.2023 08:34 14,7 C 13,9 C 10,6 C 93 % 1022,4 hPa 0,0 l/m 0 min 0 min 18 W/m 6,4 km/h (2 Bft) 95,74 %
07.10.2023 08:36 14,8 C 14,4 C 10,6 C 93 % 1022,4 hPa 0,0 l/m 0 min 0 min 21 W/m 16,1 km/h (3 Bft) 95,74 %
07.10.2023 08:38 14,8 C 14,4 C 10,6 C 93 % 1022,5 hPa 0,0 l/m 0 min 0 min 25 W/m 12,9 km/h (3 Bft) 95,74 %
07.10.2023 08:40 14,8 C 14,4 C 10,6 C 93 % 1022,4 hPa 0,0 l/m 0 min 0 min 31 W/m 9,7 km/h (2 Bft) 93,48 %
07.10.2023 08:42 14,8 C 14,4 C 10,6 C 93 % 1022,4 hPa 0,0 l/m 0 min 0 min 38 W/m 12,9 km/h (3 Bft) 95,74 %
07.10.2023 08:44 14,8 C 14,4 C 10,6 C 93 % 1022,5 hPa 0,0 l/m 0 min 0 min 45 W/m 12,9 km/h (3 Bft) 93,62 %
07.10.2023 08:46 14,8 C 14,4 C 10,6 C 93 % 1022,5 hPa 0,0 l/m 0 min 0 min 48 W/m 6,4 km/h (2 Bft) 95,74 %
07.10.2023 08:48 14,8 C 14,4 C 10,6 C 93 % 1022,5 hPa 0,0 l/m 0 min 0 min 53 W/m 6,4 km/h (2 Bft) 93,62 %
07.10.2023 08:50 14,9 C 14,4 C 11,1 C 93 % 1022,5 hPa 0,0 l/m 0 min 0 min 55 W/m 12,9 km/h (3 Bft) 95,74 %
07.10.2023 08:52 14,9 C 14,4 C 11,1 C 93 % 1022,5 hPa 0,0 l/m 0 min 0 min 62 W/m 9,7 km/h (2 Bft) 95,74 %
07.10.2023 08:54 14,9 C 14,4 C 11,1 C 93 % 1022,5 hPa 0,0 l/m 0 min 0 min 70 W/m 9,7 km/h (2 Bft) 93,62 %
07.10.2023 08:56 14,9 C 14,4 C 11,1 C 93 % 1022,5 hPa 0,0 l/m 0 min 0 min 75 W/m 9,7 km/h (2 Bft) 97,83 %
07.10.2023 08:58 15,0 C 14,4 C 11,1 C 93 % 1022,5 hPa 0,0 l/m 0 min 0 min 82 W/m 12,9 km/h (3 Bft) 93,62 %
07.10.2023 09:00 15,0 C 15,0 C 11,1 C 93 % 1022,6 hPa 0,0 l/m 0 min 0 min 89 W/m 6,4 km/h (2 Bft) 95,74 %
07.10.2023 09:02 15,1 C 15,0 C 11,1 C 93 % 1022,6 hPa 0,0 l/m 0 min 0 min 91 W/m 12,9 km/h (3 Bft) 93,62 %
07.10.2023 09:04 15,1 C 15,0 C 11,1 C 93 % 1022,6 hPa 0,0 l/m 0 min 0 min 89 W/m 12,9 km/h (3 Bft) 95,92 %
07.10.2023 09:06 15,1 C 15,0 C 11,1 C 93 % 1022,6 hPa 0,0 l/m 0 min 0 min 88 W/m 12,9 km/h (3 Bft) 93,62 %
07.10.2023 09:08 15,2 C 15,0 C 11,1 C 93 % 1022,6 hPa 0,0 l/m 0 min 0 min 85 W/m 12,9 km/h (3 Bft) 95,74 %
07.10.2023 09:10 15,2 C 15,0 C 11,1 C 93 % 1022,6 hPa 0,0 l/m 0 min 0 min 78 W/m 12,9 km/h (3 Bft) 93,62 %
07.10.2023 09:12 15,2 C 15,0 C 11,1 C 93 % 1022,7 hPa 0,0 l/m 0 min 0 min 73 W/m 12,9 km/h (3 Bft) 93,48 %
07.10.2023 09:14 15,2 C 15,0 C 11,1 C 93 % 1022,7 hPa 0,0 l/m 0 min 0 min 68 W/m 16,1 km/h (3 Bft) 93,62 %
07.10.2023 09:16 15,3 C 15,0 C 11,1 C 93 % 1022,6 hPa 0,0 l/m 0 min 0 min 64 W/m 6,4 km/h (2 Bft) 95,74 %
07.10.2023 09:18 15,3 C 15,0 C 11,1 C 92 % 1022,5 hPa 0,0 l/m 0 min 0 min 60 W/m 19,3 km/h (3 Bft) 95,74 %
07.10.2023 09:20 15,3 C 15,0 C 11,1 C 92 % 1022,6 hPa 0,0 l/m 0 min 0 min 55 W/m 16,1 km/h (3 Bft) 95,74 %
07.10.2023 09:22 15,3 C 15,0 C 11,1 C 92 % 1022,5 hPa 0,0 l/m 0 min 0 min 54 W/m 9,7 km/h (2 Bft) 93,62 %
07.10.2023 09:24 15,3 C 15,0 C 11,1 C 92 % 1022,6 hPa 0,0 l/m 0 min 0 min 56 W/m 12,9 km/h (3 Bft) 95,74 %
07.10.2023 09:26 15,3 C 15,0 C 11,1 C 92 % 1022,6 hPa 0,0 l/m 0 min 0 min 61 W/m 19,3 km/h (3 Bft) 97,83 %
07.10.2023 09:28 15,3 C 15,0 C 11,1 C 92 % 1022,5 hPa 0,0 l/m 0 min 0 min 64 W/m 16,1 km/h (3 Bft) 95,74 %
07.10.2023 09:30 15,4 C 15,0 C 11,1 C 92 % 1022,6 hPa 0,0 l/m 0 min 0 min 66 W/m 19,3 km/h (3 Bft) 100,00 %
07.10.2023 09:32 15,4 C 15,0 C 11,1 C 92 % 1022,6 hPa 0,0 l/m 0 min 0 min 63 W/m 12,9 km/h (3 Bft) 97,87 %
07.10.2023 09:34 15,4 C 15,0 C 11,1 C 92 % 1022,7 hPa 0,0 l/m 0 min 0 min 57 W/m 12,9 km/h (3 Bft) 100,00 %
07.10.2023 09:36 15,4 C 15,0 C 11,1 C 92 % 1022,7 hPa 0,0 l/m 0 min 0 min 51 W/m 16,1 km/h (3 Bft) 100,00 %
07.10.2023 09:38 15,4 C 15,0 C 11,1 C 92 % 1022,6 hPa 0,0 l/m 0 min 0 min 48 W/m 9,7 km/h (2 Bft) 100,00 %
07.10.2023 09:40 15,4 C 15,0 C 11,1 C 92 % 1022,6 hPa 0,0 l/m 0 min 0 min 49 W/m 12,9 km/h (3 Bft) 100,00 %
07.10.2023 09:42 15,4 C 15,0 C 11,1 C 92 % 1022,7 hPa 0,0 l/m 0 min 0 min 51 W/m 9,7 km/h (2 Bft) 97,87 %
07.10.2023 09:44 15,5 C 15,0 C 11,1 C 92 % 1022,7 hPa 0,0 l/m 0 min 0 min 51 W/m 6,4 km/h (2 Bft) 100,00 %
07.10.2023 09:46 15,5 C 15,0 C 11,1 C 92 % 1022,8 hPa 0,0 l/m 0 min 0 min 51 W/m 12,9 km/h (3 Bft) 100,00 %
07.10.2023 09:48 15,5 C 15,0 C 11,1 C 92 % 1022,7 hPa 0,0 l/m 0 min 0 min 53 W/m 19,3 km/h (3 Bft) 100,00 %
07.10.2023 09:50 15,6 C 15,0 C 11,1 C 92 % 1022,8 hPa 0,0 l/m 0 min 0 min 52 W/m 12,9 km/h (3 Bft) 97,87 %
07.10.2023 09:52 15,6 C 15,0 C 11,1 C 92 % 1022,8 hPa 0,0 l/m 0 min 0 min 57 W/m 9,7 km/h (2 Bft) 100,00 %
07.10.2023 09:54 15,6 C 15,0 C 11,1 C 92 % 1022,8 hPa 0,0 l/m 0 min 0 min 61 W/m 12,9 km/h (3 Bft) 100,00 %
07.10.2023 09:56 15,6 C 15,0 C 11,1 C 92 % 1022,7 hPa 0,0 l/m 0 min 0 min 61 W/m 12,9 km/h (3 Bft) 100,00 %
07.10.2023 09:58 15,6 C 15,0 C 11,1 C 92 % 1022,7 hPa 0,0 l/m 0 min 0 min 62 W/m 12,9 km/h (3 Bft) 100,00 %
07.10.2023 10:00 15,6 C 15,0 C 11,7 C 91 % 1022,7 hPa 0,0 l/m 0 min 0 min 63 W/m 16,1 km/h (3 Bft) 97,83 %
07.10.2023 10:02 15,6 C 15,0 C 11,7 C 91 % 1022,7 hPa 0,0 l/m 0 min 0 min 62 W/m 12,9 km/h (3 Bft) 100,00 %
07.10.2023 10:04 15,6 C 15,0 C 11,7 C 91 % 1022,8 hPa 0,0 l/m 0 min 0 min 62 W/m 12,9 km/h (3 Bft) 100,00 %
07.10.2023 10:06 15,6 C 15,0 C 11,7 C 91 % 1022,8 hPa 0,0 l/m 0 min 0 min 71 W/m 6,4 km/h (2 Bft) 95,74 %
07.10.2023 10:08 15,6 C 15,0 C 11,7 C 91 % 1022,8 hPa 0,0 l/m 0 min 0 min 80 W/m 6,4 km/h (2 Bft) 100,00 %
07.10.2023 10:10 15,6 C 15,0 C 11,7 C 91 % 1022,7 hPa 0,0 l/m 0 min 0 min 85 W/m 12,9 km/h (3 Bft) 97,83 %
07.10.2023 10:12 15,7 C 15,6 C 11,7 C 91 % 1022,7 hPa 0,0 l/m 0 min 0 min 98 W/m 12,9 km/h (3 Bft) 100,00 %
07.10.2023 10:14 15,7 C 15,6 C 11,7 C 91 % 1022,7 hPa 0,0 l/m 0 min 0 min 110 W/m 12,9 km/h (3 Bft) 100,00 %
07.10.2023 10:16 15,7 C 15,6 C 11,7 C 91 % 1022,8 hPa 0,0 l/m 0 min 0 min 101 W/m 12,9 km/h (3 Bft) 100,00 %
07.10.2023 10:18 15,7 C 15,6 C 11,7 C 91 % 1022,8 hPa 0,0 l/m 0 min 0 min 96 W/m 25,7 km/h (4 Bft) 97,87 %
07.10.2023 10:20 15,7 C 15,6 C 11,7 C 91 % 1022,9 hPa 0,0 l/m 0 min 0 min 93 W/m 19,3 km/h (3 Bft) 100,00 %
07.10.2023 10:22 15,7 C 15,6 C 11,7 C 91 % 1022,9 hPa 0,0 l/m 0 min 0 min 88 W/m 12,9 km/h (3 Bft) 100,00 %
07.10.2023 10:24 15,8 C 15,6 C 11,7 C 91 % 1022,8 hPa 0,0 l/m 0 min 0 min 84 W/m 12,9 km/h (3 Bft) 100,00 %
07.10.2023 10:26 15,8 C 15,6 C 11,7 C 91 % 1022,9 hPa 0,0 l/m 0 min 0 min 80 W/m 16,1 km/h (3 Bft) 100,00 %
07.10.2023 10:28 15,8 C 15,6 C 11,7 C 91 % 1022,8 hPa 0,0 l/m 0 min 0 min 88 W/m 12,9 km/h (3 Bft) 100,00 %
07.10.2023 10:30 15,8 C 15,6 C 11,7 C 91 % 1022,8 hPa 0,0 l/m 0 min 0 min 96 W/m 12,9 km/h (3 Bft) 100,00 %
07.10.2023 10:32 15,8 C 15,6 C 11,7 C 91 % 1022,8 hPa 0,0 l/m 0 min 0 min 96 W/m 16,1 km/h (3 Bft) 100,00 %
07.10.2023 10:34 15,9 C 15,6 C 11,7 C 91 % 1022,8 hPa 0,0 l/m 0 min 0 min 97 W/m 12,9 km/h (3 Bft) 100,00 %
07.10.2023 10:36 15,9 C 15,6 C 11,7 C 91 % 1022,7 hPa 0,0 l/m 0 min 0 min 98 W/m 16,1 km/h (3 Bft) 97,87 %
07.10.2023 10:38 15,9 C 15,6 C 11,7 C 91 % 1022,8 hPa 0,0 l/m 0 min 0 min 104 W/m 16,1 km/h (3 Bft) 100,00 %
07.10.2023 10:40 15,9 C 15,6 C 11,7 C 91 % 1022,9 hPa 0,0 l/m 0 min 0 min 116 W/m 6,4 km/h (2 Bft) 100,00 %
07.10.2023 10:42 16,0 C 16,1 C 12,2 C 91 % 1022,8 hPa 0,0 l/m 0 min 0 min 134 W/m 9,7 km/h (2 Bft) 100,00 %
07.10.2023 10:44 16,0 C 16,1 C 12,2 C 91 % 1022,9 hPa 0,0 l/m 0 min 0 min 133 W/m 16,1 km/h (3 Bft) 100,00 %
07.10.2023 10:46 16,1 C 16,1 C 12,2 C 91 % 1022,9 hPa 0,0 l/m 0 min 0 min 133 W/m 16,1 km/h (3 Bft) 97,22 %
07.10.2023 10:48 16,1 C 16,1 C 12,2 C 91 % 1022,9 hPa 0,0 l/m 0 min 0 min 133 W/m 12,9 km/h (3 Bft) 95,74 %
07.10.2023 10:50 16,1 C 16,1 C 12,2 C 91 % 1022,9 hPa 0,0 l/m 0 min 0 min 118 W/m 12,9 km/h (3 Bft) 97,87 %
07.10.2023 10:52 16,1 C 16,1 C 12,2 C 91 % 1023,0 hPa 0,0 l/m 0 min 0 min 92 W/m 16,1 km/h (3 Bft) 93,48 %
07.10.2023 10:54 16,2 C 16,1 C 12,2 C 91 % 1023,0 hPa 0,0 l/m 0 min 0 min 71 W/m 19,3 km/h (3 Bft) 95,74 %
07.10.2023 10:56 16,1 C 15,6 C 12,2 C 91 % 1022,9 hPa 0,0 l/m 0 min 0 min 67 W/m 16,1 km/h (3 Bft) 95,74 %
07.10.2023 10:58 16,2 C 16,1 C 12,2 C 90 % 1022,9 hPa 0,0 l/m 0 min 0 min 89 W/m 19,3 km/h (3 Bft) 95,74 %
07.10.2023 11:00 16,2 C 16,1 C 12,2 C 91 % 1022,9 hPa 0,0 l/m 0 min 0 min 103 W/m 12,9 km/h (3 Bft) 93,62 %
07.10.2023 11:02 16,3 C 16,7 C 12,2 C 91 % 1022,9 hPa 0,0 l/m 0 min 0 min 111 W/m 9,7 km/h (2 Bft) 95,74 %
07.10.2023 11:04 16,4 C 16,7 C 12,2 C 91 % 1022,9 hPa 0,0 l/m 0 min 0 min 118 W/m 19,3 km/h (3 Bft) 93,88 %
07.10.2023 11:06 16,4 C 17,2 C 12,2 C 91 % 1022,8 hPa 0,0 l/m 0 min 0 min 117 W/m 16,1 km/h (3 Bft) 95,74 %
07.10.2023 11:08 16,6 C 17,8 C 12,8 C 90 % 1022,8 hPa 0,0 l/m 0 min 0 min 85 W/m 12,9 km/h (3 Bft) 95,65 %
07.10.2023 11:10 16,6 C 17,8 C 12,8 C 90 % 1022,8 hPa 0,0 l/m 0 min 0 min 111 W/m 19,3 km/h (3 Bft) 89,36 %
07.10.2023 11:12 16,7 C 17,8 C 12,8 C 90 % 1022,7 hPa 0,0 l/m 0 min 0 min 156 W/m 12,9 km/h (3 Bft) 95,74 %
07.10.2023 11:14 16,8 C 17,8 C 12,8 C 90 % 1022,6 hPa 0,0 l/m 0 min 0 min 99 W/m 12,9 km/h (3 Bft) 95,74 %
07.10.2023 11:16 16,9 C 17,8 C 13,3 C 89 % 1022,7 hPa 0,0 l/m 0 min 0 min 103 W/m 19,3 km/h (3 Bft) 95,74 %
07.10.2023 11:18 16,9 C 18,3 C 13,3 C 89 % 1022,7 hPa 0,0 l/m 0 min 0 min 133 W/m 16,1 km/h (3 Bft) 93,62 %
07.10.2023 11:20 17,1 C 18,3 C 13,3 C 89 % 1022,6 hPa 0,0 l/m 0 min 0 min 143 W/m 25,7 km/h (4 Bft) 95,74 %
07.10.2023 11:22 17,1 C 18,3 C 13,3 C 88 % 1022,5 hPa 0,0 l/m 0 min 0 min 134 W/m 25,7 km/h (4 Bft) 91,49 %
07.10.2023 11:24 17,2 C 18,9 C 13,9 C 88 % 1022,5 hPa 0,0 l/m 2 min 0 min 404 W/m 12,9 km/h (3 Bft) 93,48 %
07.10.2023 11:26 17,2 C 19,4 C 14,4 C 88 % 1022,6 hPa 0,0 l/m 2 min 0 min 353 W/m 12,9 km/h (3 Bft) 93,62 %
07.10.2023 11:28 17,3 C 20,0 C 15,0 C 88 % 1022,6 hPa 0,0 l/m 2 min 0 min 395 W/m 16,1 km/h (3 Bft) 95,74 %
07.10.2023 11:30 17,4 C 20,6 C 15,0 C 88 % 1022,6 hPa 0,0 l/m 2 min 0 min 430 W/m 19,3 km/h (3 Bft) 95,74 %
07.10.2023 11:32 17,5 C 21,1 C 15,6 C 87 % 1022,6 hPa 0,0 l/m 2 min 0 min 431 W/m 25,7 km/h (4 Bft) 97,87 %
07.10.2023 11:34 17,6 C 21,1 C 15,6 C 87 % 1022,6 hPa 0,0 l/m 2 min 0 min 425 W/m 25,7 km/h (4 Bft) 97,87 %
07.10.2023 11:36 17,7 C 20,6 C 15,6 C 87 % 1022,6 hPa 0,0 l/m 2 min 0 min 423 W/m 19,3 km/h (3 Bft) 97,87 %
07.10.2023 11:38 17,7 C 20,6 C 15,6 C 86 % 1022,7 hPa 0,0 l/m 2 min 0 min 269 W/m 22,5 km/h (4 Bft) 95,74 %
07.10.2023 11:40 17,8 C 20,6 C 15,0 C 86 % 1022,6 hPa 0,0 l/m 2 min 0 min 392 W/m 16,1 km/h (3 Bft) 97,83 %
07.10.2023 11:42 17,8 C 20,6 C 15,0 C 86 % 1022,6 hPa 0,0 l/m 2 min 0 min 451 W/m 16,1 km/h (3 Bft) 93,62 %
07.10.2023 11:44 17,9 C 20,6 C 15,0 C 86 % 1022,7 hPa 0,0 l/m 2 min 0 min 460 W/m 12,9 km/h (3 Bft) 97,87 %
07.10.2023 11:46 18,1 C 20,6 C 15,0 C 86 % 1022,7 hPa 0,0 l/m 2 min 0 min 459 W/m 12,9 km/h (3 Bft) 97,87 %
07.10.2023 11:48 18,2 C 20,6 C 15,0 C 86 % 1022,7 hPa 0,0 l/m 2 min 0 min 381 W/m 16,1 km/h (3 Bft) 93,62 %
07.10.2023 11:50 18,2 C 20,6 C 15,0 C 85 % 1022,7 hPa 0,0 l/m 0 min 0 min 237 W/m 22,5 km/h (4 Bft) 97,87 %
07.10.2023 11:52 18,2 C 19,4 C 15,0 C 85 % 1022,7 hPa 0,0 l/m 0 min 0 min 227 W/m 22,5 km/h (4 Bft) 97,87 %
07.10.2023 11:54 18,3 C 19,4 C 15,0 C 85 % 1022,7 hPa 0,0 l/m 2 min 0 min 352 W/m 19,3 km/h (3 Bft) 95,74 %
07.10.2023 11:56 18,3 C 18,9 C 15,0 C 84 % 1022,7 hPa 0,0 l/m 2 min 0 min 352 W/m 16,1 km/h (3 Bft) 97,83 %
07.10.2023 11:58 18,4 C 18,9 C 15,0 C 85 % 1022,6 hPa 0,0 l/m 2 min 0 min 315 W/m 16,1 km/h (3 Bft) 97,87 %
07.10.2023 12:00 18,4 C 18,9 C 15,0 C 84 % 1022,6 hPa 0,0 l/m 2 min 0 min 275 W/m 22,5 km/h (4 Bft) 97,87 %
07.10.2023 12:02 18,5 C 18,9 C 15,0 C 84 % 1022,6 hPa 0,0 l/m 0 min 0 min 216 W/m 16,1 km/h (3 Bft) 97,87 %
07.10.2023 12:04 18,6 C 18,9 C 15,0 C 84 % 1022,5 hPa 0,0 l/m 0 min 0 min 240 W/m 22,5 km/h (4 Bft) 97,96 %
07.10.2023 12:08 18,7 C 18,9 C 15,0 C 84 % 1022,5 hPa 0,0 l/m 0 min 0 min 236 W/m 16,1 km/h (3 Bft) 95,74 %
07.10.2023 12:10 18,7 C 18,9 C 15,0 C 84 % 1022,5 hPa 0,0 l/m 0 min 0 min 115 W/m 19,3 km/h (3 Bft) 95,65 %
07.10.2023 12:12 18,8 C 18,9 C 15,0 C 84 % 1022,4 hPa 0,0 l/m 0 min 0 min 99 W/m 25,7 km/h (4 Bft) 97,87 %
07.10.2023 12:14 18,8 C 18,9 C 15,0 C 84 % 1022,4 hPa 0,0 l/m 0 min 0 min 118 W/m 19,3 km/h (3 Bft) 97,56 %
07.10.2023 12:16 19,0 C 18,9 C 15,0 C 84 % 1022,5 hPa 0,0 l/m 0 min 0 min 96 W/m 16,1 km/h (3 Bft) 97,87 %
07.10.2023 12:18 19,1 C 19,4 C 15,0 C 83 % 1022,4 hPa 0,0 l/m 0 min 0 min 121 W/m 16,1 km/h (3 Bft) 97,87 %
07.10.2023 12:20 19,2 C 19,4 C 15,0 C 82 % 1022,4 hPa 0,0 l/m 0 min 0 min 104 W/m 12,9 km/h (3 Bft) 97,87 %
07.10.2023 12:22 19,2 C 19,4 C 15,0 C 82 % 1022,5 hPa 0,0 l/m 0 min 0 min 130 W/m 19,3 km/h (3 Bft) 97,87 %
07.10.2023 12:24 19,3 C 19,4 C 15,0 C 82 % 1022,5 hPa 0,0 l/m 0 min 0 min 98 W/m 19,3 km/h (3 Bft) 100,00 %
07.10.2023 12:26 19,4 C 19,4 C 15,0 C 82 % 1022,5 hPa 0,0 l/m 0 min 0 min 88 W/m 12,9 km/h (3 Bft) 100,00 %
07.10.2023 12:28 19,4 C 19,4 C 15,0 C 81 % 1022,5 hPa 0,0 l/m 0 min 0 min 88 W/m 19,3 km/h (3 Bft) 100,00 %
07.10.2023 12:30 19,4 C 19,4 C 15,0 C 81 % 1022,5 hPa 0,0 l/m 0 min 0 min 89 W/m 35,4 km/h (5 Bft) 100,00 %
07.10.2023 12:32 19,4 C 19,4 C 15,0 C 81 % 1022,4 hPa 0,0 l/m 0 min 0 min 90 W/m 19,3 km/h (3 Bft) 97,87 %
07.10.2023 12:34 19,5 C 19,4 C 15,0 C 81 % 1022,5 hPa 0,0 l/m 0 min 0 min 90 W/m 25,7 km/h (4 Bft) 100,00 %
07.10.2023 12:36 19,5 C 19,4 C 15,0 C 80 % 1022,5 hPa 0,0 l/m 0 min 0 min 90 W/m 22,5 km/h (4 Bft) 100,00 %
07.10.2023 12:38 19,6 C 19,4 C 15,0 C 80 % 1022,5 hPa 0,0 l/m 0 min 0 min 90 W/m 19,3 km/h (3 Bft) 100,00 %
07.10.2023 12:40 19,6 C 19,4 C 15,0 C 80 % 1022,5 hPa 0,0 l/m 0 min 0 min 90 W/m 19,3 km/h (3 Bft) 100,00 %
07.10.2023 12:42 19,6 C 19,4 C 15,0 C 81 % 1022,5 hPa 0,0 l/m 0 min 0 min 92 W/m 16,1 km/h (3 Bft) 100,00 %
07.10.2023 12:44 19,7 C 19,4 C 15,0 C 80 % 1022,5 hPa 0,0 l/m 0 min 0 min 95 W/m 19,3 km/h (3 Bft) 100,00 %
07.10.2023 12:46 19,7 C 19,4 C 15,6 C 80 % 1022,6 hPa 0,0 l/m 0 min 0 min 96 W/m 12,9 km/h (3 Bft) 100,00 %
07.10.2023 12:48 19,8 C 19,4 C 15,6 C 80 % 1022,6 hPa 0,0 l/m 0 min 0 min 96 W/m 19,3 km/h (3 Bft) 100,00 %
07.10.2023 12:50 19,8 C 19,4 C 15,6 C 79 % 1022,5 hPa 0,0 l/m 0 min 0 min 95 W/m 16,1 km/h (3 Bft) 97,87 %
07.10.2023 12:52 19,9 C 19,4 C 15,6 C 80 % 1022,5 hPa 0,0 l/m 0 min 0 min 95 W/m 12,9 km/h (3 Bft) 97,87 %
07.10.2023 12:54 19,9 C 19,4 C 15,6 C 79 % 1022,5 hPa 0,0 l/m 0 min 0 min 95 W/m 16,1 km/h (3 Bft) 97,87 %
07.10.2023 12:56 19,9 C 19,4 C 15,6 C 79 % 1022,5 hPa 0,0 l/m 0 min 0 min 95 W/m 19,3 km/h (3 Bft) 97,56 %
07.10.2023 12:58 20,0 C 20,0 C 15,6 C 79 % 1022,5 hPa 0,0 l/m 0 min 0 min 94 W/m 19,3 km/h (3 Bft) 98,08 %
07.10.2023 13:00 20,1 C 20,0 C 15,6 C 79 % 1022,5 hPa 0,0 l/m 0 min 0 min 93 W/m 9,7 km/h (2 Bft) 95,74 %
07.10.2023 13:02 20,1 C 20,0 C 15,6 C 79 % 1022,5 hPa 0,0 l/m 0 min 0 min 93 W/m 16,1 km/h (3 Bft) 97,87 %
07.10.2023 13:04 20,1 C 20,0 C 15,6 C 78 % 1022,5 hPa 0,0 l/m 0 min 0 min 91 W/m 19,3 km/h (3 Bft) 97,62 %
07.10.2023 13:06 20,1 C 19,4 C 15,6 C 78 % 1022,4 hPa 0,0 l/m 0 min 0 min 93 W/m 16,1 km/h (3 Bft) 98,31 %
07.10.2023 13:08 20,2 C 20,0 C 15,6 C 78 % 1022,3 hPa 0,0 l/m 0 min 0 min 93 W/m 12,9 km/h (3 Bft) 97,14 %
07.10.2023 13:10 20,2 C 20,0 C 15,6 C 77 % 1022,3 hPa 0,0 l/m 0 min 0 min 95 W/m 19,3 km/h (3 Bft) 97,87 %
07.10.2023 13:12 20,2 C 20,0 C 15,6 C 78 % 1022,4 hPa 0,0 l/m 0 min 0 min 95 W/m 9,7 km/h (2 Bft) 97,87 %
07.10.2023 13:14 20,2 C 20,0 C 15,6 C 78 % 1022,3 hPa 0,0 l/m 0 min 0 min 95 W/m 12,9 km/h (3 Bft) 97,87 %
07.10.2023 13:16 20,3 C 20,0 C 15,6 C 78 % 1022,3 hPa 0,0 l/m 0 min 0 min 95 W/m 9,7 km/h (2 Bft) 97,83 %
07.10.2023 13:18 20,3 C 20,0 C 15,6 C 78 % 1022,4 hPa 0,0 l/m 0 min 0 min 97 W/m 12,9 km/h (3 Bft) 95,74 %
07.10.2023 13:20 20,3 C 20,0 C 15,6 C 77 % 1022,3 hPa 0,0 l/m 0 min 0 min 98 W/m 22,5 km/h (4 Bft) 97,87 %
07.10.2023 13:22 20,3 C 20,0 C 15,6 C 77 % 1022,3 hPa 0,0 l/m 0 min 0 min 98 W/m 22,5 km/h (4 Bft) 100,00 %
07.10.2023 13:24 20,3 C 20,0 C 15,6 C 77 % 1022,3 hPa 0,0 l/m 0 min 0 min 98 W/m 12,9 km/h (3 Bft) 95,74 %
07.10.2023 13:26 20,4 C 20,0 C 15,6 C 78 % 1022,4 hPa 0,0 l/m 0 min 0 min 98 W/m 12,9 km/h (3 Bft) 95,74 %
07.10.2023 13:28 20,4 C 20,0 C 15,6 C 77 % 1022,3 hPa 0,0 l/m 0 min 0 min 98 W/m 25,7 km/h (4 Bft) 97,87 %
07.10.2023 13:30 20,4 C 20,0 C 15,6 C 77 % 1022,3 hPa 0,0 l/m 0 min 0 min 98 W/m 16,1 km/h (3 Bft) 97,87 %
07.10.2023 13:32 20,4 C 20,0 C 15,6 C 77 % 1022,3 hPa 0,0 l/m 0 min 0 min 103 W/m 19,3 km/h (3 Bft) 97,87 %
07.10.2023 13:34 20,4 C 20,0 C 15,6 C 77 % 1022,2 hPa 0,0 l/m 0 min 0 min 124 W/m 16,1 km/h (3 Bft) 97,83 %
07.10.2023 13:36 20,5 C 20,0 C 15,6 C 77 % 1022,2 hPa 0,0 l/m 0 min 0 min 120 W/m 16,1 km/h (3 Bft) 97,87 %
07.10.2023 13:38 20,5 C 20,0 C 15,6 C 77 % 1022,2 hPa 0,0 l/m 0 min 0 min 108 W/m 16,1 km/h (3 Bft) 95,74 %
07.10.2023 13:40 20,6 C 20,0 C 15,6 C 77 % 1022,2 hPa 0,0 l/m 0 min 0 min 109 W/m 16,1 km/h (3 Bft) 97,87 %
07.10.2023 13:42 20,6 C 20,6 C 16,1 C 77 % 1022,1 hPa 0,0 l/m 0 min 0 min 130 W/m 19,3 km/h (3 Bft) 91,49 %
07.10.2023 13:44 20,7 C 20,6 C 16,1 C 76 % 1022,1 hPa 0,0 l/m 0 min 0 min 124 W/m 16,1 km/h (3 Bft) 97,87 %
07.10.2023 13:46 20,7 C 20,6 C 16,1 C 77 % 1022,0 hPa 0,0 l/m 0 min 0 min 130 W/m 19,3 km/h (3 Bft) 97,87 %
07.10.2023 13:48 20,7 C 20,6 C 16,1 C 76 % 1022,0 hPa 0,0 l/m 0 min 0 min 131 W/m 19,3 km/h (3 Bft) 97,83 %
07.10.2023 13:50 20,8 C 20,6 C 16,1 C 76 % 1022,0 hPa 0,0 l/m 0 min 0 min 137 W/m 16,1 km/h (3 Bft) 97,87 %
07.10.2023 13:52 20,8 C 20,6 C 16,1 C 76 % 1022,0 hPa 0,0 l/m 0 min 0 min 167 W/m 12,9 km/h (3 Bft) 95,74 %
07.10.2023 13:54 20,8 C 20,6 C 16,1 C 76 % 1022,0 hPa 0,0 l/m 0 min 0 min 165 W/m 19,3 km/h (3 Bft) 97,87 %
07.10.2023 13:56 20,8 C 20,6 C 16,1 C 76 % 1022,0 hPa 0,0 l/m 0 min 0 min 199 W/m 19,3 km/h (3 Bft) 97,87 %
07.10.2023 13:58 20,8 C 20,6 C 16,1 C 75 % 1022,0 hPa 0,0 l/m 2 min 0 min 305 W/m 16,1 km/h (3 Bft) 95,74 %
07.10.2023 14:00 20,9 C 20,6 C 16,1 C 76 % 1022,0 hPa 0,0 l/m 2 min 0 min 470 W/m 12,9 km/h (3 Bft) 95,74 %
07.10.2023 14:02 20,9 C 20,6 C 16,1 C 75 % 1021,9 hPa 0,0 l/m 2 min 0 min 448 W/m 16,1 km/h (3 Bft) 97,87 %
07.10.2023 14:04 20,9 C 20,6 C 16,1 C 75 % 1022,0 hPa 0,0 l/m 2 min 0 min 284 W/m 16,1 km/h (3 Bft) 97,92 %
07.10.2023 14:06 20,9 C 21,1 C 16,1 C 75 % 1022,0 hPa 0,0 l/m 2 min 0 min 348 W/m 12,9 km/h (3 Bft) 98,31 %
07.10.2023 14:08 21,0 C 21,1 C 16,1 C 75 % 1022,1 hPa 0,0 l/m 2 min 0 min 470 W/m 16,1 km/h (3 Bft) 97,14 %
07.10.2023 14:10 21,1 C 21,7 C 16,1 C 75 % 1022,0 hPa 0,0 l/m 2 min 0 min 498 W/m 19,3 km/h (3 Bft) 97,87 %
07.10.2023 14:12 21,1 C 21,7 C 16,1 C 75 % 1022,0 hPa 0,0 l/m 2 min 0 min 482 W/m 16,1 km/h (3 Bft) 95,74 %
07.10.2023 14:14 21,1 C 21,7 C 16,1 C 75 % 1022,0 hPa 0,0 l/m 2 min 0 min 497 W/m 19,3 km/h (3 Bft) 97,87 %
07.10.2023 14:16 21,2 C 21,7 C 16,1 C 75 % 1022,0 hPa 0,0 l/m 2 min 0 min 480 W/m 16,1 km/h (3 Bft) 100,00 %
07.10.2023 14:18 21,2 C 21,7 C 16,1 C 75 % 1022,0 hPa 0,0 l/m 2 min 0 min 482 W/m 9,7 km/h (2 Bft) 100,00 %
07.10.2023 14:20 21,2 C 21,7 C 16,1 C 75 % 1022,0 hPa 0,0 l/m 2 min 0 min 478 W/m 16,1 km/h (3 Bft) 95,74 %
07.10.2023 14:22 21,3 C 21,7 C 16,1 C 74 % 1022,0 hPa 0,0 l/m 2 min 0 min 496 W/m 19,3 km/h (3 Bft) 100,00 %
07.10.2023 14:24 21,3 C 21,1 C 16,1 C 74 % 1022,0 hPa 0,0 l/m 2 min 0 min 488 W/m 12,9 km/h (3 Bft) 97,87 %
07.10.2023 14:26 21,3 C 21,1 C 16,1 C 74 % 1022,1 hPa 0,0 l/m 2 min 0 min 473 W/m 12,9 km/h (3 Bft) 100,00 %
07.10.2023 14:28 21,4 C 21,1 C 16,1 C 75 % 1022,1 hPa 0,0 l/m 2 min 0 min 466 W/m 16,1 km/h (3 Bft) 100,00 %
07.10.2023 14:30 21,4 C 21,1 C 16,1 C 74 % 1022,1 hPa 0,0 l/m 2 min 0 min 465 W/m 29,0 km/h (5 Bft) 100,00 %
07.10.2023 14:32 21,4 C 21,1 C 16,1 C 73 % 1022,2 hPa 0,0 l/m 2 min 0 min 450 W/m 25,7 km/h (4 Bft) 97,87 %
07.10.2023 14:34 21,3 C 20,6 C 16,1 C 73 % 1022,2 hPa 0,0 l/m 2 min 0 min 488 W/m 16,1 km/h (3 Bft) 97,83 %
07.10.2023 14:36 21,4 C 21,1 C 16,1 C 73 % 1022,2 hPa 0,0 l/m 2 min 0 min 510 W/m 19,3 km/h (3 Bft) 97,87 %
07.10.2023 14:38 21,4 C 21,1 C 16,1 C 74 % 1022,2 hPa 0,0 l/m 2 min 0 min 528 W/m 19,3 km/h (3 Bft) 97,87 %
07.10.2023 14:40 21,4 C 21,1 C 16,1 C 74 % 1022,2 hPa 0,0 l/m 2 min 0 min 493 W/m 19,3 km/h (3 Bft) 95,74 %
07.10.2023 14:42 21,5 C 21,1 C 16,1 C 74 % 1022,2 hPa 0,0 l/m 2 min 0 min 406 W/m 16,1 km/h (3 Bft) 97,87 %
07.10.2023 14:44 21,6 C 21,1 C 16,7 C 74 % 1022,2 hPa 0,0 l/m 2 min 0 min 376 W/m 16,1 km/h (3 Bft) 97,87 %
07.10.2023 14:46 21,6 C 21,1 C 16,7 C 73 % 1022,2 hPa 0,0 l/m 2 min 0 min 428 W/m 16,1 km/h (3 Bft) 97,87 %
07.10.2023 14:48 21,6 C 21,1 C 16,7 C 73 % 1022,3 hPa 0,0 l/m 2 min 0 min 448 W/m 12,9 km/h (3 Bft) 95,74 %
07.10.2023 14:50 21,6 C 21,1 C 16,7 C 73 % 1022,3 hPa 0,0 l/m 2 min 0 min 368 W/m 19,3 km/h (3 Bft) 97,83 %
07.10.2023 14:52 21,6 C 21,1 C 16,7 C 73 % 1022,2 hPa 0,0 l/m 2 min 0 min 371 W/m 16,1 km/h (3 Bft) 95,74 %
07.10.2023 14:54 21,6 C 21,1 C 16,7 C 73 % 1022,2 hPa 0,0 l/m 2 min 0 min 420 W/m 19,3 km/h (3 Bft) 97,87 %
07.10.2023 14:56 21,6 C 21,1 C 16,7 C 73 % 1022,2 hPa 0,0 l/m 2 min 0 min 485 W/m 16,1 km/h (3 Bft) 97,87 %
07.10.2023 14:58 21,6 C 21,1 C 16,7 C 72 % 1022,3 hPa 0,0 l/m 2 min 0 min 500 W/m 19,3 km/h (3 Bft) 91,49 %
07.10.2023 15:00 21,7 C 21,1 C 16,7 C 73 % 1022,3 hPa 0,0 l/m 2 min 0 min 492 W/m 9,7 km/h (2 Bft) 93,62 %
07.10.2023 15:02 21,7 C 21,1 C 16,7 C 73 % 1022,3 hPa 0,0 l/m 2 min 0 min 473 W/m 16,1 km/h (3 Bft) 95,74 %
07.10.2023 15:04 21,7 C 21,1 C 16,7 C 73 % 1022,3 hPa 0,0 l/m 2 min 0 min 452 W/m 12,9 km/h (3 Bft) 95,74 %
07.10.2023 15:06 21,8 C 21,1 C 16,7 C 72 % 1022,3 hPa 0,0 l/m 2 min 0 min 490 W/m 16,1 km/h (3 Bft) 95,74 %
07.10.2023 15:08 21,8 C 21,1 C 16,7 C 72 % 1022,3 hPa 0,0 l/m 2 min 0 min 485 W/m 12,9 km/h (3 Bft) 91,49 %
07.10.2023 15:10 21,8 C 21,1 C 16,7 C 72 % 1022,3 hPa 0,0 l/m 2 min 0 min 469 W/m 19,3 km/h (3 Bft) 97,87 %
07.10.2023 15:12 21,8 C 21,1 C 16,7 C 72 % 1022,3 hPa 0,0 l/m 2 min 0 min 398 W/m 19,3 km/h (3 Bft) 93,62 %
07.10.2023 15:14 21,7 C 21,1 C 16,7 C 72 % 1022,3 hPa 0,0 l/m 2 min 0 min 416 W/m 19,3 km/h (3 Bft) 95,74 %
07.10.2023 15:16 21,7 C 21,1 C 16,7 C 72 % 1022,3 hPa 0,0 l/m 2 min 0 min 441 W/m 19,3 km/h (3 Bft) 93,62 %
07.10.2023 15:18 21,8 C 21,1 C 16,7 C 72 % 1022,3 hPa 0,0 l/m 2 min 0 min 460 W/m 16,1 km/h (3 Bft) 95,74 %
07.10.2023 15:20 21,8 C 21,1 C 16,7 C 72 % 1022,2 hPa 0,0 l/m 2 min 0 min 432 W/m 16,1 km/h (3 Bft) 95,65 %
07.10.2023 15:22 21,8 C 21,1 C 16,7 C 71 % 1022,3 hPa 0,0 l/m 2 min 0 min 431 W/m 19,3 km/h (3 Bft) 95,74 %
07.10.2023 15:24 21,8 C 21,1 C 16,7 C 71 % 1022,4 hPa 0,0 l/m 2 min 0 min 394 W/m 19,3 km/h (3 Bft) 95,74 %
07.10.2023 15:26 21,8 C 21,1 C 16,7 C 71 % 1022,3 hPa 0,0 l/m 2 min 0 min 343 W/m 22,5 km/h (4 Bft) 95,74 %
07.10.2023 15:28 21,8 C 21,1 C 16,7 C 72 % 1022,3 hPa 0,0 l/m 2 min 0 min 256 W/m 9,7 km/h (2 Bft) 95,74 %
07.10.2023 15:30 21,7 C 21,1 C 16,7 C 72 % 1022,4 hPa 0,0 l/m 2 min 0 min 293 W/m 29,0 km/h (5 Bft) 95,74 %
07.10.2023 15:32 21,7 C 21,1 C 16,7 C 72 % 1022,2 hPa 0,0 l/m 2 min 0 min 334 W/m 22,5 km/h (4 Bft) 97,87 %
07.10.2023 15:34 21,7 C 21,1 C 16,7 C 72 % 1022,2 hPa 0,0 l/m 2 min 0 min 336 W/m 22,5 km/h (4 Bft) 97,87 %
07.10.2023 15:36 21,7 C 21,1 C 16,7 C 72 % 1022,1 hPa 0,0 l/m 2 min 0 min 388 W/m 29,0 km/h (5 Bft) 97,83 %
07.10.2023 15:38 21,7 C 21,1 C 16,7 C 72 % 1022,2 hPa 0,0 l/m 2 min 0 min 430 W/m 12,9 km/h (3 Bft) 100,00 %
07.10.2023 15:40 21,7 C 21,1 C 16,7 C 72 % 1022,2 hPa 0,0 l/m 2 min 0 min 414 W/m 9,7 km/h (2 Bft) 100,00 %
07.10.2023 15:42 21,8 C 21,1 C 16,7 C 72 % 1022,2 hPa 0,0 l/m 2 min 0 min 348 W/m 12,9 km/h (3 Bft) 100,00 %
07.10.2023 15:44 21,8 C 21,1 C 16,7 C 71 % 1022,3 hPa 0,0 l/m 2 min 0 min 295 W/m 16,1 km/h (3 Bft) 100,00 %
07.10.2023 15:46 21,8 C 21,1 C 16,7 C 71 % 1022,1 hPa 0,0 l/m 2 min 0 min 311 W/m 22,5 km/h (4 Bft) 97,87 %
07.10.2023 15:48 21,8 C 21,1 C 16,7 C 71 % 1022,2 hPa 0,0 l/m 2 min 0 min 306 W/m 19,3 km/h (3 Bft) 100,00 %
07.10.2023 15:50 21,8 C 21,1 C 16,7 C 72 % 1022,1 hPa 0,0 l/m 2 min 0 min 312 W/m 12,9 km/h (3 Bft) 100,00 %
07.10.2023 15:52 21,8 C 21,1 C 16,7 C 72 % 1022,1 hPa 0,0 l/m 2 min 0 min 299 W/m 12,9 km/h (3 Bft) 97,83 %
07.10.2023 15:54 21,8 C 21,1 C 16,7 C 72 % 1022,0 hPa 0,0 l/m 2 min 0 min 327 W/m 16,1 km/h (3 Bft) 95,74 %
07.10.2023 15:56 21,8 C 21,1 C 16,7 C 71 % 1021,9 hPa 0,0 l/m 2 min 0 min 355 W/m 12,9 km/h (3 Bft) 95,74 %
07.10.2023 15:58 21,8 C 21,1 C 16,7 C 71 % 1021,9 hPa 0,0 l/m 2 min 0 min 360 W/m 16,1 km/h (3 Bft) 95,74 %
07.10.2023 16:00 21,8 C 21,1 C 16,7 C 72 % 1021,9 hPa 0,0 l/m 2 min 0 min 361 W/m 19,3 km/h (3 Bft) 97,87 %
07.10.2023 16:02 21,8 C 21,1 C 16,7 C 72 % 1021,9 hPa 0,0 l/m 2 min 0 min 352 W/m 12,9 km/h (3 Bft) 97,87 %
07.10.2023 16:04 21,8 C 21,1 C 16,7 C 72 % 1021,8 hPa 0,0 l/m 2 min 0 min 319 W/m 12,9 km/h (3 Bft) 97,87 %
07.10.2023 16:06 21,8 C 21,1 C 16,7 C 71 % 1021,7 hPa 0,0 l/m 2 min 0 min 344 W/m 19,3 km/h (3 Bft) 97,83 %
07.10.2023 16:08 21,9 C 21,1 C 17,2 C 72 % 1021,8 hPa 0,0 l/m 2 min 0 min 306 W/m 12,9 km/h (3 Bft) 97,87 %
07.10.2023 16:10 21,9 C 21,1 C 17,2 C 72 % 1021,7 hPa 0,0 l/m 2 min 0 min 234 W/m 12,9 km/h (3 Bft) 97,87 %
07.10.2023 16:12 21,9 C 21,1 C 16,7 C 72 % 1021,6 hPa 0,0 l/m 2 min 0 min 260 W/m 12,9 km/h (3 Bft) 97,87 %
07.10.2023 16:14 21,9 C 21,1 C 16,7 C 71 % 1021,7 hPa 0,0 l/m 2 min 0 min 288 W/m 29,0 km/h (5 Bft) 97,87 %
07.10.2023 16:16 21,8 C 21,1 C 16,7 C 71 % 1021,6 hPa 0,0 l/m 2 min 0 min 310 W/m 19,3 km/h (3 Bft) 95,74 %
07.10.2023 16:18 21,8 C 21,1 C 16,7 C 71 % 1021,5 hPa 0,0 l/m 2 min 0 min 330 W/m 25,7 km/h (4 Bft) 97,87 %
07.10.2023 16:20 21,8 C 21,1 C 16,7 C 71 % 1021,5 hPa 0,0 l/m 2 min 0 min 337 W/m 22,5 km/h (4 Bft) 97,87 %
07.10.2023 16:22 21,9 C 21,1 C 16,7 C 71 % 1021,5 hPa 0,0 l/m 2 min 0 min 334 W/m 19,3 km/h (3 Bft) 97,83 %
07.10.2023 16:24 21,9 C 21,1 C 16,7 C 71 % 1021,4 hPa 0,0 l/m 2 min 0 min 339 W/m 12,9 km/h (3 Bft) 97,87 %
07.10.2023 16:26 21,9 C 21,1 C 16,7 C 71 % 1021,4 hPa 0,0 l/m 2 min 0 min 343 W/m 16,1 km/h (3 Bft) 97,87 %
07.10.2023 16:28 21,9 C 21,1 C 16,7 C 71 % 1021,4 hPa 0,0 l/m 2 min 0 min 346 W/m 16,1 km/h (3 Bft) 97,87 %
07.10.2023 16:30 21,9 C 21,1 C 16,7 C 71 % 1021,4 hPa 0,0 l/m 2 min 0 min 338 W/m 22,5 km/h (4 Bft) 95,74 %
07.10.2023 16:32 21,9 C 21,7 C 16,7 C 71 % 1021,4 hPa 0,0 l/m 2 min 0 min 355 W/m 16,1 km/h (3 Bft) 100,00 %
07.10.2023 16:34 22,0 C 21,7 C 16,7 C 70 % 1021,4 hPa 0,0 l/m 2 min 0 min 343 W/m 22,5 km/h (4 Bft) 95,74 %
07.10.2023 16:36 22,1 C 21,7 C 16,7 C 71 % 1021,4 hPa 0,0 l/m 2 min 0 min 337 W/m 9,7 km/h (2 Bft) 100,00 %
07.10.2023 16:38 22,1 C 21,7 C 17,2 C 71 % 1021,4 hPa 0,0 l/m 2 min 0 min 311 W/m 12,9 km/h (3 Bft) 97,87 %
07.10.2023 16:40 22,1 C 21,7 C 17,2 C 71 % 1021,4 hPa 0,0 l/m 2 min 0 min 270 W/m 16,1 km/h (3 Bft) 100,00 %
07.10.2023 16:42 22,1 C 21,7 C 17,2 C 71 % 1021,3 hPa 0,0 l/m 2 min 0 min 332 W/m 25,7 km/h (4 Bft) 100,00 %
07.10.2023 16:44 22,1 C 21,7 C 17,2 C 71 % 1021,4 hPa 0,0 l/m 2 min 0 min 265 W/m 19,3 km/h (3 Bft) 97,87 %
07.10.2023 16:46 22,1 C 21,7 C 17,2 C 71 % 1021,4 hPa 0,0 l/m 2 min 0 min 216 W/m 12,9 km/h (3 Bft) 100,00 %
07.10.2023 16:48 22,1 C 21,7 C 17,2 C 71 % 1021,4 hPa 0,0 l/m 2 min 0 min 202 W/m 12,9 km/h (3 Bft) 100,00 %
07.10.2023 16:50 22,1 C 21,7 C 17,2 C 71 % 1021,3 hPa 0,0 l/m 2 min 0 min 166 W/m 16,1 km/h (3 Bft) 100,00 %
07.10.2023 16:52 22,1 C 21,1 C 16,7 C 71 % 1021,5 hPa 0,0 l/m 0 min 0 min 148 W/m 32,2 km/h (5 Bft) 100,00 %
07.10.2023 16:54 22,0 C 21,1 C 16,7 C 71 % 1021,6 hPa 0,0 l/m 0 min 0 min 144 W/m 19,3 km/h (3 Bft) 100,00 %
07.10.2023 16:56 22,0 C 21,1 C 16,7 C 71 % 1021,8 hPa 0,0 l/m 0 min 0 min 135 W/m 16,1 km/h (3 Bft) 97,87 %
07.10.2023 16:58 21,9 C 21,1 C 16,7 C 71 % 1021,6 hPa 0,0 l/m 0 min 0 min 120 W/m 22,5 km/h (4 Bft) 100,00 %
07.10.2023 17:00 21,9 C 21,1 C 16,7 C 71 % 1021,7 hPa 0,0 l/m 0 min 0 min 112 W/m 16,1 km/h (3 Bft) 100,00 %
07.10.2023 17:02 21,9 C 21,1 C 16,7 C 71 % 1021,7 hPa 0,0 l/m 0 min 0 min 103 W/m 16,1 km/h (3 Bft) 100,00 %
07.10.2023 17:04 21,8 C 21,1 C 16,7 C 71 % 1021,7 hPa 0,0 l/m 0 min 0 min 99 W/m 9,7 km/h (2 Bft) 100,00 %
07.10.2023 17:06 21,8 C 21,1 C 16,7 C 72 % 1021,6 hPa 0,0 l/m 0 min 0 min 101 W/m 12,9 km/h (3 Bft) 100,00 %
07.10.2023 17:08 21,8 C 21,1 C 16,7 C 72 % 1021,7 hPa 0,0 l/m 0 min 0 min 117 W/m 12,9 km/h (3 Bft) 97,83 %
07.10.2023 17:10 21,8 C 21,1 C 16,7 C 72 % 1021,7 hPa 0,0 l/m 0 min 0 min 120 W/m 12,9 km/h (3 Bft) 95,74 %
07.10.2023 17:12 21,7 C 21,1 C 16,7 C 72 % 1021,6 hPa 0,0 l/m 0 min 0 min 120 W/m 12,9 km/h (3 Bft) 97,87 %
07.10.2023 17:14 21,7 C 21,1 C 16,7 C 72 % 1021,6 hPa 0,0 l/m 0 min 0 min 120 W/m 12,9 km/h (3 Bft) 95,74 %
07.10.2023 17:16 21,7 C 21,1 C 16,7 C 72 % 1021,6 hPa 0,0 l/m 2 min 0 min 128 W/m 9,7 km/h (2 Bft) 97,87 %
07.10.2023 17:18 21,7 C 21,1 C 16,7 C 72 % 1021,6 hPa 0,0 l/m 2 min 0 min 131 W/m 12,9 km/h (3 Bft) 97,87 %
07.10.2023 17:20 21,7 C 21,1 C 16,7 C 72 % 1021,6 hPa 0,0 l/m 2 min 0 min 141 W/m 12,9 km/h (3 Bft) 97,87 %
07.10.2023 17:22 21,7 C 21,1 C 16,7 C 72 % 1021,5 hPa 0,0 l/m 2 min 0 min 123 W/m 12,9 km/h (3 Bft) 93,62 %
07.10.2023 17:24 21,7 C 21,1 C 16,7 C 72 % 1021,6 hPa 0,0 l/m 2 min 0 min 143 W/m 12,9 km/h (3 Bft) 97,83 %
07.10.2023 17:26 21,7 C 21,1 C 16,7 C 72 % 1021,4 hPa 0,0 l/m 2 min 0 min 169 W/m 16,1 km/h (3 Bft) 97,87 %
07.10.2023 17:28 21,7 C 21,1 C 16,7 C 71 % 1021,5 hPa 0,0 l/m 2 min 0 min 165 W/m 12,9 km/h (3 Bft) 95,74 %
07.10.2023 17:30 21,7 C 21,1 C 16,7 C 71 % 1021,5 hPa 0,0 l/m 2 min 0 min 151 W/m 22,5 km/h (4 Bft) 97,87 %
07.10.2023 17:32 21,7 C 21,1 C 16,7 C 71 % 1021,6 hPa 0,0 l/m 2 min 0 min 140 W/m 16,1 km/h (3 Bft) 95,74 %
07.10.2023 17:34 21,7 C 21,1 C 16,7 C 71 % 1021,6 hPa 0,0 l/m 2 min 0 min 139 W/m 19,3 km/h (3 Bft) 97,87 %
07.10.2023 17:36 21,7 C 21,1 C 16,7 C 70 % 1021,7 hPa 0,0 l/m 2 min 0 min 127 W/m 16,1 km/h (3 Bft) 97,87 %
07.10.2023 17:38 21,7 C 21,1 C 16,7 C 70 % 1021,7 hPa 0,0 l/m 2 min 0 min 126 W/m 25,7 km/h (4 Bft) 95,74 %
07.10.2023 17:40 21,6 C 21,1 C 16,7 C 71 % 1021,7 hPa 0,0 l/m 2 min 0 min 120 W/m 12,9 km/h (3 Bft) 95,74 %
07.10.2023 17:42 21,6 C 20,6 C 16,7 C 70 % 1021,7 hPa 0,0 l/m 2 min 0 min 104 W/m 12,9 km/h (3 Bft) 97,83 %
07.10.2023 17:44 21,6 C 20,6 C 16,7 C 70 % 1021,8 hPa 0,0 l/m 0 min 0 min 63 W/m 38,6 km/h (5 Bft) 100,00 %
07.10.2023 17:46 21,6 C 20,6 C 16,7 C 70 % 1021,8 hPa 0,0 l/m 0 min 0 min 61 W/m 9,7 km/h (2 Bft) 97,87 %
07.10.2023 17:48 21,6 C 20,6 C 16,1 C 71 % 1021,9 hPa 0,0 l/m 0 min 0 min 56 W/m 12,9 km/h (3 Bft) 97,87 %
07.10.2023 17:50 21,5 C 20,6 C 16,1 C 71 % 1021,8 hPa 0,0 l/m 0 min 0 min 52 W/m 16,1 km/h (3 Bft) 97,87 %
07.10.2023 17:52 21,4 C 20,6 C 16,1 C 71 % 1022,0 hPa 0,0 l/m 0 min 0 min 48 W/m 19,3 km/h (3 Bft) 97,87 %
07.10.2023 17:54 21,4 C 20,6 C 16,1 C 71 % 1022,0 hPa 0,0 l/m 0 min 0 min 44 W/m 12,9 km/h (3 Bft) 97,87 %
07.10.2023 17:56 21,3 C 20,0 C 16,1 C 71 % 1022,0 hPa 0,0 l/m 0 min 0 min 41 W/m 19,3 km/h (3 Bft) 97,83 %
07.10.2023 17:58 21,3 C 20,0 C 16,1 C 71 % 1022,0 hPa 0,0 l/m 0 min 0 min 40 W/m 16,1 km/h (3 Bft) 95,74 %
07.10.2023 18:00 21,3 C 20,0 C 16,1 C 71 % 1022,0 hPa 0,0 l/m 0 min 0 min 38 W/m 12,9 km/h (3 Bft) 97,87 %
07.10.2023 18:02 21,2 C 20,0 C 16,1 C 72 % 1022,0 hPa 0,0 l/m 0 min 0 min 34 W/m 6,4 km/h (2 Bft) 97,87 %
07.10.2023 18:04 21,2 C 20,0 C 16,1 C 72 % 1022,0 hPa 0,0 l/m 0 min 0 min 34 W/m 6,4 km/h (2 Bft) 97,87 %
07.10.2023 18:08 21,1 C 20,0 C 15,6 C 72 % 1021,9 hPa 0,0 l/m 0 min 0 min 34 W/m 16,1 km/h (3 Bft) 97,94 %
07.10.2023 18:10 21,1 C 20,0 C 15,6 C 72 % 1021,8 hPa 0,0 l/m 0 min 0 min 32 W/m 9,7 km/h (2 Bft) 95,65 %
07.10.2023 18:12 21,0 C 20,0 C 15,6 C 73 % 1021,7 hPa 0,0 l/m 0 min 0 min 28 W/m 16,1 km/h (3 Bft) 97,87 %
07.10.2023 18:14 20,9 C 20,0 C 15,6 C 73 % 1021,6 hPa 0,0 l/m 0 min 0 min 25 W/m 12,9 km/h (3 Bft) 95,74 %
07.10.2023 18:16 20,9 C 20,0 C 15,6 C 73 % 1021,6 hPa 0,0 l/m 0 min 0 min 25 W/m 16,1 km/h (3 Bft) 97,87 %
07.10.2023 18:18 20,9 C 20,0 C 15,6 C 73 % 1021,6 hPa 0,0 l/m 0 min 0 min 24 W/m 12,9 km/h (3 Bft) 95,74 %
07.10.2023 18:20 20,8 C 19,4 C 15,6 C 73 % 1021,6 hPa 0,0 l/m 0 min 0 min 23 W/m 16,1 km/h (3 Bft) 93,62 %
07.10.2023 18:22 20,8 C 19,4 C 15,6 C 73 % 1021,6 hPa 0,0 l/m 0 min 0 min 21 W/m 6,4 km/h (2 Bft) 95,74 %
07.10.2023 18:24 20,8 C 19,4 C 15,6 C 73 % 1021,6 hPa 0,0 l/m 0 min 0 min 21 W/m 12,9 km/h (3 Bft) 95,74 %
07.10.2023 18:26 20,8 C 19,4 C 15,6 C 74 % 1021,6 hPa 0,0 l/m 0 min 0 min 22 W/m 6,4 km/h (2 Bft) 95,65 %
07.10.2023 18:28 20,7 C 19,4 C 15,6 C 74 % 1021,6 hPa 0,0 l/m 0 min 0 min 23 W/m 6,4 km/h (2 Bft) 95,74 %
07.10.2023 18:30 20,7 C 19,4 C 15,6 C 74 % 1021,6 hPa 0,0 l/m 0 min 0 min 23 W/m 9,7 km/h (2 Bft) 95,74 %
07.10.2023 18:32 20,6 C 19,4 C 15,6 C 74 % 1021,6 hPa 0,0 l/m 0 min 0 min 21 W/m 6,4 km/h (2 Bft) 93,62 %
07.10.2023 18:34 20,6 C 19,4 C 15,6 C 75 % 1021,5 hPa 0,0 l/m 0 min 0 min 19 W/m 12,9 km/h (3 Bft) 95,74 %
07.10.2023 18:36 20,6 C 19,4 C 15,6 C 75 % 1021,5 hPa 0,0 l/m 0 min 0 min 18 W/m 12,9 km/h (3 Bft) 97,87 %
07.10.2023 18:38 20,5 C 19,4 C 15,6 C 75 % 1021,5 hPa 0,0 l/m 0 min 0 min 16 W/m 6,4 km/h (2 Bft) 97,87 %
07.10.2023 18:40 20,5 C 19,4 C 15,0 C 75 % 1021,4 hPa 0,0 l/m 0 min 0 min 13 W/m 9,7 km/h (2 Bft) 95,74 %
07.10.2023 18:42 20,4 C 19,4 C 15,0 C 75 % 1021,4 hPa 0,0 l/m 0 min 0 min 12 W/m 12,9 km/h (3 Bft) 95,65 %
07.10.2023 18:44 20,4 C 19,4 C 15,0 C 75 % 1021,5 hPa 0,0 l/m 0 min 0 min 11 W/m 12,9 km/h (3 Bft) 97,87 %
07.10.2023 18:46 20,3 C 19,4 C 15,0 C 75 % 1021,5 hPa 0,0 l/m 0 min 0 min 8 W/m 12,9 km/h (3 Bft) 97,87 %
07.10.2023 18:48 20,3 C 18,9 C 15,0 C 75 % 1021,6 hPa 0,0 l/m 0 min 0 min 7 W/m 6,4 km/h (2 Bft) 95,74 %
07.10.2023 18:50 20,3 C 19,4 C 15,0 C 75 % 1021,7 hPa 0,0 l/m 0 min 0 min 5 W/m 6,4 km/h (2 Bft) 97,87 %
07.10.2023 18:52 20,3 C 18,9 C 15,0 C 75 % 1021,7 hPa 0,0 l/m 0 min 0 min 5 W/m 9,7 km/h (2 Bft) 95,74 %
07.10.2023 18:54 20,3 C 18,9 C 15,0 C 75 % 1021,7 hPa 0,0 l/m 0 min 0 min 1 W/m 6,4 km/h (2 Bft) 95,74 %
07.10.2023 18:56 20,2 C 18,9 C 15,0 C 75 % 1021,8 hPa 0,0 l/m 0 min 0 min 0 W/m 9,7 km/h (2 Bft) 97,83 %
07.10.2023 18:58 20,2 C 18,9 C 15,0 C 76 % 1021,8 hPa 0,0 l/m 0 min 0 min 0 W/m 6,4 km/h (2 Bft) 95,74 %
07.10.2023 19:00 20,2 C 18,9 C 15,0 C 76 % 1021,9 hPa 0,0 l/m 0 min 0 min 0 W/m 9,7 km/h (2 Bft) 97,87 %
07.10.2023 19:02 20,1 C 18,9 C 15,0 C 76 % 1021,9 hPa 0,0 l/m 0 min 0 min 0 W/m 6,4 km/h (2 Bft) 97,87 %
07.10.2023 19:04 20,1 C 18,9 C 15,0 C 76 % 1022,0 hPa 0,0 l/m 0 min 0 min 0 W/m 12,9 km/h (3 Bft) 97,14 %
07.10.2023 19:06 20,1 C 18,9 C 15,0 C 76 % 1022,0 hPa 0,0 l/m 0 min 0 min 0 W/m 6,4 km/h (2 Bft) 98,31 %
07.10.2023 19:08 20,1 C 18,9 C 15,0 C 76 % 1022,0 hPa 0,0 l/m 0 min 0 min 0 W/m 3,2 km/h (1 Bft) 95,74 %
07.10.2023 19:10 20,1 C 18,9 C 15,0 C 76 % 1022,0 hPa 0,0 l/m 0 min 0 min 0 W/m 6,4 km/h (2 Bft) 97,14 %
07.10.2023 19:12 20,1 C 18,9 C 15,0 C 76 % 1022,0 hPa 0,0 l/m 0 min 0 min 0 W/m 6,4 km/h (2 Bft) 98,00 %
07.10.2023 19:14 20,0 C 18,9 C 15,0 C 76 % 1022,0 hPa 0,0 l/m 0 min 0 min 0 W/m 6,4 km/h (2 Bft) 97,87 %
07.10.2023 19:16 20,0 C 18,9 C 15,0 C 76 % 1022,0 hPa 0,0 l/m 0 min 0 min 0 W/m 9,7 km/h (2 Bft) 91,30 %
07.10.2023 19:18 19,9 C 18,9 C 15,0 C 76 % 1022,0 hPa 0,0 l/m 0 min 0 min 0 W/m 12,9 km/h (3 Bft) 97,87 %
07.10.2023 19:20 19,9 C 18,9 C 15,0 C 76 % 1022,1 hPa 0,0 l/m 0 min 0 min 0 W/m 12,9 km/h (3 Bft) 95,74 %
07.10.2023 19:22 19,9 C 18,9 C 15,0 C 76 % 1022,1 hPa 0,0 l/m 0 min 0 min 0 W/m 12,9 km/h (3 Bft) 95,74 %
07.10.2023 19:24 19,8 C 18,9 C 14,4 C 76 % 1022,2 hPa 0,0 l/m 0 min 0 min 0 W/m 16,1 km/h (3 Bft) 97,87 %
07.10.2023 19:26 19,8 C 18,9 C 14,4 C 77 % 1022,2 hPa 0,0 l/m 0 min 0 min 0 W/m 12,9 km/h (3 Bft) 97,87 %
07.10.2023 19:28 19,8 C 18,9 C 15,0 C 76 % 1022,2 hPa 0,0 l/m 0 min 0 min 0 W/m 12,9 km/h (3 Bft) 95,74 %
07.10.2023 19:30 19,8 C 18,9 C 14,4 C 77 % 1022,2 hPa 0,0 l/m 0 min 0 min 0 W/m 6,4 km/h (2 Bft) 97,87 %
07.10.2023 19:32 19,8 C 18,9 C 14,4 C 77 % 1022,3 hPa 0,0 l/m 0 min 0 min 0 W/m 3,2 km/h (1 Bft) 97,87 %
07.10.2023 19:34 19,7 C 18,3 C 14,4 C 77 % 1022,4 hPa 0,0 l/m 0 min 0 min 0 W/m 6,4 km/h (2 Bft) 97,83 %
07.10.2023 19:36 19,7 C 18,3 C 14,4 C 77 % 1022,4 hPa 0,0 l/m 0 min 0 min 0 W/m 12,9 km/h (3 Bft) 97,87 %
07.10.2023 19:38 19,7 C 18,3 C 14,4 C 77 % 1022,4 hPa 0,0 l/m 0 min 0 min 0 W/m 6,4 km/h (2 Bft) 95,74 %
07.10.2023 19:40 19,7 C 18,3 C 14,4 C 77 % 1022,4 hPa 0,0 l/m 0 min 0 min 0 W/m 6,4 km/h (2 Bft) 97,87 %
07.10.2023 19:42 19,6 C 18,3 C 14,4 C 77 % 1022,4 hPa 0,0 l/m 0 min 0 min 0 W/m 6,4 km/h (2 Bft) 100,00 %
07.10.2023 19:44 19,6 C 18,3 C 14,4 C 77 % 1022,2 hPa 0,0 l/m 0 min 0 min 0 W/m 12,9 km/h (3 Bft) 97,87 %
07.10.2023 19:46 19,6 C 18,3 C 14,4 C 77 % 1022,1 hPa 0,0 l/m 0 min 0 min 0 W/m 6,4 km/h (2 Bft) 100,00 %
07.10.2023 19:48 19,6 C 18,3 C 14,4 C 77 % 1022,0 hPa 0,0 l/m 0 min 0 min 0 W/m 6,4 km/h (2 Bft) 100,00 %
07.10.2023 19:50 19,6 C 18,3 C 14,4 C 77 % 1021,9 hPa 0,0 l/m 0 min 0 min 0 W/m 6,4 km/h (2 Bft) 97,83 %
07.10.2023 19:52 19,6 C 18,3 C 14,4 C 77 % 1021,9 hPa 0,0 l/m 0 min 0 min 0 W/m 12,9 km/h (3 Bft) 100,00 %
07.10.2023 19:54 19,5 C 18,3 C 14,4 C 77 % 1021,8 hPa 0,0 l/m 0 min 0 min 0 W/m 12,9 km/h (3 Bft) 100,00 %
07.10.2023 19:56 19,5 C 18,3 C 14,4 C 77 % 1021,8 hPa 0,0 l/m 0 min 0 min 0 W/m 12,9 km/h (3 Bft) 100,00 %
07.10.2023 19:58 19,5 C 18,3 C 14,4 C 77 % 1021,9 hPa 0,0 l/m 0 min 0 min 0 W/m 6,4 km/h (2 Bft) 100,00 %
07.10.2023 20:00 19,4 C 18,3 C 14,4 C 77 % 1021,9 hPa 0,0 l/m 0 min 0 min 0 W/m 6,4 km/h (2 Bft) 100,00 %
07.10.2023 20:02 19,4 C 18,3 C 14,4 C 78 % 1022,0 hPa 0,0 l/m 0 min 0 min 0 W/m 12,9 km/h (3 Bft) 100,00 %
07.10.2023 20:04 19,4 C 18,3 C 14,4 C 78 % 1022,0 hPa 0,0 l/m 0 min 0 min 0 W/m 6,4 km/h (2 Bft) 100,00 %
07.10.2023 20:06 19,4 C 18,3 C 14,4 C 78 % 1022,0 hPa 0,0 l/m 0 min 0 min 0 W/m 12,9 km/h (3 Bft) 97,83 %
07.10.2023 20:08 19,3 C 18,3 C 14,4 C 78 % 1022,0 hPa 0,0 l/m 0 min 0 min 0 W/m 16,1 km/h (3 Bft) 100,00 %
07.10.2023 20:10 19,3 C 18,3 C 14,4 C 78 % 1022,0 hPa 0,0 l/m 0 min 0 min 0 W/m 3,2 km/h (1 Bft) 100,00 %
07.10.2023 20:12 19,3 C 18,3 C 14,4 C 78 % 1021,9 hPa 0,0 l/m 0 min 0 min 0 W/m 6,4 km/h (2 Bft) 100,00 %
07.10.2023 20:14 19,3 C 18,3 C 14,4 C 78 % 1021,9 hPa 0,0 l/m 0 min 0 min 0 W/m 6,4 km/h (2 Bft) 100,00 %
07.10.2023 20:16 19,3 C 18,3 C 14,4 C 78 % 1021,9 hPa 0,0 l/m 0 min 0 min 0 W/m 12,9 km/h (3 Bft) 100,00 %
07.10.2023 20:18 19,3 C 18,3 C 14,4 C 78 % 1021,9 hPa 0,0 l/m 0 min 0 min 0 W/m 6,4 km/h (2 Bft) 100,00 %
07.10.2023 20:20 19,3 C 18,3 C 14,4 C 78 % 1021,9 hPa 0,0 l/m 0 min 0 min 0 W/m 6,4 km/h (2 Bft) 100,00 %
07.10.2023 20:22 19,3 C 18,3 C 14,4 C 78 % 1022,1 hPa 0,0 l/m 0 min 0 min 0 W/m 12,9 km/h (3 Bft) 97,83 %
07.10.2023 20:24 19,3 C 18,3 C 14,4 C 78 % 1022,2 hPa 0,0 l/m 0 min 0 min 0 W/m 9,7 km/h (2 Bft) 97,92 %
07.10.2023 20:26 19,3 C 18,3 C 14,4 C 78 % 1022,2 hPa 0,0 l/m 0 min 0 min 0 W/m 12,9 km/h (3 Bft) 100,00 %
07.10.2023 20:28 19,3 C 18,3 C 14,4 C 78 % 1022,2 hPa 0,0 l/m 0 min 0 min 0 W/m 12,9 km/h (3 Bft) 100,00 %
07.10.2023 20:30 19,3 C 18,3 C 14,4 C 78 % 1022,2 hPa 0,0 l/m 0 min 0 min 0 W/m 6,4 km/h (2 Bft) 97,87 %
07.10.2023 20:32 19,3 C 18,3 C 14,4 C 78 % 1022,1 hPa 0,0 l/m 0 min 0 min 0 W/m 12,9 km/h (3 Bft) 97,87 %
07.10.2023 20:34 19,3 C 18,3 C 14,4 C 78 % 1022,1 hPa 0,0 l/m 0 min 0 min 0 W/m 6,4 km/h (2 Bft) 100,00 %
07.10.2023 20:36 19,3 C 18,3 C 14,4 C 78 % 1022,0 hPa 0,0 l/m 0 min 0 min 0 W/m 6,4 km/h (2 Bft) 100,00 %
07.10.2023 20:38 19,3 C 18,3 C 14,4 C 78 % 1022,0 hPa 0,0 l/m 0 min 0 min 0 W/m 12,9 km/h (3 Bft) 97,83 %
07.10.2023 20:40 19,3 C 18,3 C 14,4 C 79 % 1021,9 hPa 0,0 l/m 0 min 0 min 0 W/m 12,9 km/h (3 Bft) 97,87 %
07.10.2023 20:42 19,3 C 18,3 C 14,4 C 78 % 1021,9 hPa 0,0 l/m 0 min 0 min 0 W/m 25,7 km/h (4 Bft) 97,87 %
07.10.2023 20:44 19,3 C 18,3 C 14,4 C 78 % 1021,9 hPa 0,0 l/m 0 min 0 min 0 W/m 16,1 km/h (3 Bft) 97,87 %
07.10.2023 20:46 19,3 C 18,3 C 14,4 C 78 % 1021,8 hPa 0,0 l/m 0 min 0 min 0 W/m 19,3 km/h (3 Bft) 97,87 %
07.10.2023 20:48 19,3 C 18,3 C 14,4 C 78 % 1021,8 hPa 0,0 l/m 0 min 0 min 0 W/m 16,1 km/h (3 Bft) 97,87 %
07.10.2023 20:50 19,3 C 18,3 C 14,4 C 78 % 1021,8 hPa 0,0 l/m 0 min 0 min 0 W/m 12,9 km/h (3 Bft) 97,87 %
07.10.2023 20:52 19,3 C 18,3 C 14,4 C 79 % 1021,8 hPa 0,0 l/m 0 min 0 min 0 W/m 19,3 km/h (3 Bft) 97,87 %
07.10.2023 20:54 19,3 C 18,3 C 14,4 C 78 % 1021,8 hPa 0,0 l/m 0 min 0 min 0 W/m 12,9 km/h (3 Bft) 95,65 %
07.10.2023 20:56 19,3 C 18,3 C 14,4 C 79 % 1021,9 hPa 0,0 l/m 0 min 0 min 0 W/m 16,1 km/h (3 Bft) 97,87 %
07.10.2023 20:58 19,3 C 18,3 C 14,4 C 79 % 1021,8 hPa 0,0 l/m 0 min 0 min 0 W/m 16,1 km/h (3 Bft) 93,62 %
07.10.2023 21:00 19,3 C 18,3 C 14,4 C 79 % 1021,8 hPa 0,0 l/m 0 min 0 min 0 W/m 12,9 km/h (3 Bft) 95,74 %
07.10.2023 21:02 19,3 C 18,3 C 14,4 C 79 % 1021,8 hPa 0,0 l/m 0 min 0 min 0 W/m 19,3 km/h (3 Bft) 93,62 %
07.10.2023 21:04 19,3 C 18,3 C 14,4 C 79 % 1021,8 hPa 0,0 l/m 0 min 0 min 0 W/m 16,1 km/h (3 Bft) 95,83 %
07.10.2023 21:06 19,3 C 18,3 C 14,4 C 79 % 1021,7 hPa 0,0 l/m 0 min 0 min 0 W/m 16,1 km/h (3 Bft) 93,62 %
07.10.2023 21:08 19,3 C 18,3 C 14,4 C 79 % 1021,8 hPa 0,0 l/m 0 min 0 min 0 W/m 19,3 km/h (3 Bft) 91,49 %
07.10.2023 21:10 19,3 C 18,3 C 14,4 C 79 % 1021,7 hPa 0,0 l/m 0 min 0 min 0 W/m 25,7 km/h (4 Bft) 93,48 %
07.10.2023 21:12 19,3 C 18,3 C 14,4 C 79 % 1021,9 hPa 0,0 l/m 0 min 0 min 0 W/m 12,9 km/h (3 Bft) 93,62 %
07.10.2023 21:14 19,3 C 18,3 C 14,4 C 79 % 1021,8 hPa 0,0 l/m 0 min 0 min 0 W/m 19,3 km/h (3 Bft) 93,62 %
07.10.2023 21:16 19,3 C 18,3 C 14,4 C 79 % 1021,8 hPa 0,0 l/m 0 min 0 min 0 W/m 12,9 km/h (3 Bft) 93,62 %
07.10.2023 21:18 19,3 C 18,3 C 14,4 C 79 % 1021,8 hPa 0,0 l/m 0 min 0 min 0 W/m 16,1 km/h (3 Bft) 93,62 %
07.10.2023 21:20 19,3 C 18,3 C 14,4 C 79 % 1021,8 hPa 0,0 l/m 0 min 0 min 0 W/m 22,5 km/h (4 Bft) 93,62 %
07.10.2023 21:22 19,3 C 18,3 C 14,4 C 79 % 1021,9 hPa 0,0 l/m 0 min 0 min 0 W/m 16,1 km/h (3 Bft) 93,62 %
07.10.2023 21:24 19,3 C 18,3 C 14,4 C 79 % 1021,9 hPa 0,0 l/m 0 min 0 min 0 W/m 16,1 km/h (3 Bft) 93,48 %
07.10.2023 21:26 19,3 C 18,3 C 14,4 C 79 % 1021,8 hPa 0,0 l/m 0 min 0 min 0 W/m 6,4 km/h (2 Bft) 93,62 %
07.10.2023 21:28 19,3 C 18,3 C 14,4 C 79 % 1021,8 hPa 0,0 l/m 0 min 0 min 0 W/m 16,1 km/h (3 Bft) 95,74 %
07.10.2023 21:30 19,3 C 18,3 C 14,4 C 79 % 1021,9 hPa 0,0 l/m 0 min 0 min 0 W/m 12,9 km/h (3 Bft) 95,74 %
07.10.2023 21:32 19,2 C 18,3 C 14,4 C 79 % 1021,8 hPa 0,0 l/m 0 min 0 min 0 W/m 9,7 km/h (2 Bft) 93,62 %
07.10.2023 21:34 19,2 C 18,3 C 14,4 C 80 % 1021,9 hPa 0,0 l/m 0 min 0 min 0 W/m 22,5 km/h (4 Bft) 95,74 %
07.10.2023 21:36 19,2 C 18,3 C 14,4 C 80 % 1021,9 hPa 0,0 l/m 0 min 0 min 0 W/m 9,7 km/h (2 Bft) 93,62 %
07.10.2023 21:38 19,2 C 18,3 C 14,4 C 80 % 1021,9 hPa 0,0 l/m 0 min 0 min 0 W/m 12,9 km/h (3 Bft) 100,00 %
07.10.2023 21:40 19,2 C 18,3 C 14,4 C 80 % 1022,0 hPa 0,0 l/m 0 min 0 min 0 W/m 19,3 km/h (3 Bft) 97,87 %
07.10.2023 21:42 19,2 C 18,3 C 14,4 C 80 % 1022,1 hPa 0,0 l/m 0 min 0 min 0 W/m 12,9 km/h (3 Bft) 97,83 %
07.10.2023 21:44 19,3 C 18,3 C 14,4 C 80 % 1022,2 hPa 0,0 l/m 0 min 0 min 0 W/m 9,7 km/h (2 Bft) 93,62 %
07.10.2023 21:46 19,2 C 18,3 C 14,4 C 80 % 1022,2 hPa 0,0 l/m 0 min 0 min 0 W/m 6,4 km/h (2 Bft) 97,87 %
07.10.2023 21:48 19,2 C 18,3 C 14,4 C 80 % 1022,3 hPa 0,0 l/m 0 min 0 min 0 W/m 9,7 km/h (2 Bft) 97,87 %
07.10.2023 21:50 19,2 C 18,3 C 14,4 C 80 % 1022,3 hPa 0,0 l/m 0 min 0 min 0 W/m 19,3 km/h (3 Bft) 97,87 %
07.10.2023 21:52 19,3 C 18,3 C 14,4 C 80 % 1022,3 hPa 0,0 l/m 0 min 0 min 0 W/m 16,1 km/h (3 Bft) 100,00 %
07.10.2023 21:54 19,3 C 18,3 C 14,4 C 80 % 1022,2 hPa 0,0 l/m 0 min 0 min 0 W/m 12,9 km/h (3 Bft) 100,00 %
07.10.2023 21:56 19,3 C 18,3 C 14,4 C 80 % 1022,2 hPa 0,0 l/m 0 min 0 min 0 W/m 19,3 km/h (3 Bft) 97,87 %
07.10.2023 21:58 19,3 C 18,3 C 14,4 C 80 % 1022,3 hPa 0,0 l/m 0 min 0 min 0 W/m 12,9 km/h (3 Bft) 95,65 %
07.10.2023 22:00 19,3 C 18,3 C 14,4 C 80 % 1022,3 hPa 0,0 l/m 0 min 0 min 0 W/m 19,3 km/h (3 Bft) 100,00 %
07.10.2023 22:02 19,4 C 18,3 C 14,4 C 80 % 1022,3 hPa 0,0 l/m 0 min 0 min 0 W/m 16,1 km/h (3 Bft) 100,00 %
07.10.2023 22:04 19,3 C 18,3 C 14,4 C 80 % 1022,3 hPa 0,0 l/m 0 min 0 min 0 W/m 12,9 km/h (3 Bft) 100,00 %
07.10.2023 22:06 19,3 C 18,3 C 14,4 C 80 % 1022,2 hPa 0,0 l/m 0 min 0 min 0 W/m 12,9 km/h (3 Bft) 97,87 %
07.10.2023 22:08 19,3 C 18,3 C 14,4 C 80 % 1022,2 hPa 0,0 l/m 0 min 0 min 0 W/m 12,9 km/h (3 Bft) 100,00 %
07.10.2023 22:10 19,3 C 18,3 C 14,4 C 80 % 1022,3 hPa 0,0 l/m 0 min 0 min 0 W/m 12,9 km/h (3 Bft) 100,00 %
07.10.2023 22:12 19,3 C 18,3 C 14,4 C 80 % 1022,2 hPa 0,0 l/m 0 min 0 min 0 W/m 19,3 km/h (3 Bft) 100,00 %
07.10.2023 22:14 19,3 C 18,3 C 14,4 C 80 % 1022,2 hPa 0,0 l/m 0 min 0 min 0 W/m 6,4 km/h (2 Bft) 100,00 %
07.10.2023 22:16 19,3 C 18,3 C 14,4 C 80 % 1022,2 hPa 0,0 l/m 0 min 0 min 0 W/m 9,7 km/h (2 Bft) 100,00 %
07.10.2023 22:18 19,3 C 18,3 C 14,4 C 80 % 1022,2 hPa 0,0 l/m 0 min 0 min 0 W/m 16,1 km/h (3 Bft) 100,00 %
07.10.2023 22:20 19,3 C 18,3 C 14,4 C 80 % 1022,1 hPa 0,0 l/m 0 min 0 min 0 W/m 12,9 km/h (3 Bft) 100,00 %
07.10.2023 22:22 19,3 C 18,3 C 14,4 C 80 % 1022,2 hPa 0,0 l/m 0 min 0 min 0 W/m 16,1 km/h (3 Bft) 100,00 %
07.10.2023 22:24 19,3 C 18,3 C 14,4 C 80 % 1022,2 hPa 0,0 l/m 0 min 0 min 0 W/m 9,7 km/h (2 Bft) 100,00 %
07.10.2023 22:26 19,3 C 18,3 C 14,4 C 80 % 1022,3 hPa 0,0 l/m 0 min 0 min 0 W/m 12,9 km/h (3 Bft) 100,00 %
07.10.2023 22:28 19,3 C 18,3 C 14,4 C 80 % 1022,2 hPa 0,0 l/m 0 min 0 min 0 W/m 16,1 km/h (3 Bft) 100,00 %
07.10.2023 22:30 19,3 C 18,3 C 14,4 C 80 % 1022,3 hPa 0,0 l/m 0 min 0 min 0 W/m 12,9 km/h (3 Bft) 100,00 %
07.10.2023 22:32 19,3 C 18,3 C 14,4 C 80 % 1022,4 hPa 0,0 l/m 0 min 0 min 0 W/m 12,9 km/h (3 Bft) 97,87 %
07.10.2023 22:34 19,3 C 18,3 C 14,4 C 80 % 1022,5 hPa 0,0 l/m 0 min 0 min 0 W/m 25,7 km/h (4 Bft) 100,00 %
07.10.2023 22:36 19,3 C 18,3 C 14,4 C 80 % 1022,6 hPa 0,0 l/m 0 min 0 min 0 W/m 9,7 km/h (2 Bft) 100,00 %
07.10.2023 22:38 19,2 C 18,3 C 14,4 C 80 % 1022,8 hPa 0,0 l/m 0 min 0 min 0 W/m 9,7 km/h (2 Bft) 100,00 %
07.10.2023 22:40 19,2 C 18,3 C 14,4 C 80 % 1022,8 hPa 0,0 l/m 0 min 0 min 0 W/m 12,9 km/h (3 Bft) 97,87 %
07.10.2023 22:42 19,2 C 18,3 C 14,4 C 80 % 1022,8 hPa 0,0 l/m 0 min 0 min 0 W/m 6,4 km/h (2 Bft) 100,00 %
07.10.2023 22:44 19,2 C 18,3 C 14,4 C 80 % 1022,9 hPa 0,0 l/m 0 min 0 min 0 W/m 19,3 km/h (3 Bft) 100,00 %
07.10.2023 22:46 19,2 C 18,3 C 14,4 C 80 % 1023,0 hPa 0,0 l/m 0 min 0 min 0 W/m 12,9 km/h (3 Bft) 97,83 %
07.10.2023 22:48 19,2 C 18,3 C 14,4 C 80 % 1023,0 hPa 0,0 l/m 0 min 0 min 0 W/m 19,3 km/h (3 Bft) 100,00 %
07.10.2023 22:50 19,2 C 18,3 C 14,4 C 80 % 1023,1 hPa 0,0 l/m 0 min 0 min 0 W/m 12,9 km/h (3 Bft) 100,00 %
07.10.2023 22:52 19,2 C 18,3 C 14,4 C 80 % 1023,1 hPa 0,0 l/m 0 min 0 min 0 W/m 16,1 km/h (3 Bft) 100,00 %
07.10.2023 22:54 19,2 C 18,3 C 14,4 C 80 % 1023,0 hPa 0,0 l/m 0 min 0 min 0 W/m 9,7 km/h (2 Bft) 100,00 %
07.10.2023 22:56 19,1 C 18,3 C 14,4 C 80 % 1023,0 hPa 0,0 l/m 0 min 0 min 0 W/m 16,1 km/h (3 Bft) 97,87 %
07.10.2023 22:58 19,1 C 18,3 C 14,4 C 80 % 1023,0 hPa 0,0 l/m 0 min 0 min 0 W/m 16,1 km/h (3 Bft) 100,00 %
07.10.2023 23:00 19,1 C 17,8 C 13,9 C 80 % 1022,9 hPa 0,0 l/m 0 min 0 min 0 W/m 9,7 km/h (2 Bft) 100,00 %
07.10.2023 23:02 19,1 C 17,8 C 13,9 C 80 % 1022,9 hPa 0,0 l/m 0 min 0 min 0 W/m 6,4 km/h (2 Bft) 97,83 %
07.10.2023 23:04 19,1 C 17,8 C 13,9 C 80 % 1022,9 hPa 0,0 l/m 0 min 0 min 0 W/m 19,3 km/h (3 Bft) 95,92 %
07.10.2023 23:06 19,0 C 17,8 C 13,9 C 80 % 1022,8 hPa 0,0 l/m 0 min 0 min 0 W/m 12,9 km/h (3 Bft) 97,87 %
07.10.2023 23:08 19,0 C 17,8 C 13,9 C 80 % 1022,8 hPa 0,0 l/m 0 min 0 min 0 W/m 16,1 km/h (3 Bft) 97,87 %
07.10.2023 23:10 19,0 C 17,8 C 13,9 C 80 % 1022,8 hPa 0,0 l/m 0 min 0 min 0 W/m 12,9 km/h (3 Bft) 95,74 %
07.10.2023 23:12 18,9 C 17,8 C 13,9 C 81 % 1022,8 hPa 0,0 l/m 0 min 0 min 0 W/m 12,9 km/h (3 Bft) 97,87 %
07.10.2023 23:14 18,9 C 17,8 C 13,9 C 80 % 1022,8 hPa 0,0 l/m 0 min 0 min 0 W/m 6,4 km/h (2 Bft) 97,87 %
07.10.2023 23:16 18,9 C 17,8 C 13,9 C 80 % 1022,7 hPa 0,0 l/m 0 min 0 min 0 W/m 16,1 km/h (3 Bft) 97,87 %
07.10.2023 23:18 18,9 C 17,8 C 13,9 C 81 % 1022,7 hPa 0,0 l/m 0 min 0 min 0 W/m 12,9 km/h (3 Bft) 95,65 %
07.10.2023 23:20 18,8 C 17,8 C 13,9 C 81 % 1022,7 hPa 0,0 l/m 0 min 0 min 0 W/m 12,9 km/h (3 Bft) 97,87 %
07.10.2023 23:22 18,8 C 17,8 C 13,9 C 81 % 1022,7 hPa 0,0 l/m 0 min 0 min 0 W/m 12,9 km/h (3 Bft) 97,87 %
07.10.2023 23:24 18,8 C 17,8 C 13,9 C 81 % 1022,7 hPa 0,0 l/m 0 min 0 min 0 W/m 19,3 km/h (3 Bft) 97,87 %
07.10.2023 23:26 18,8 C 17,8 C 13,9 C 81 % 1022,6 hPa 0,0 l/m 0 min 0 min 0 W/m 16,1 km/h (3 Bft) 97,87 %
07.10.2023 23:28 18,7 C 17,8 C 13,9 C 81 % 1022,6 hPa 0,0 l/m 0 min 0 min 0 W/m 6,4 km/h (2 Bft) 95,74 %
07.10.2023 23:30 18,7 C 17,8 C 13,9 C 81 % 1022,6 hPa 0,0 l/m 0 min 0 min 0 W/m 12,9 km/h (3 Bft) 95,74 %
07.10.2023 23:32 18,7 C 17,8 C 13,9 C 81 % 1022,6 hPa 0,0 l/m 0 min 0 min 0 W/m 25,7 km/h (4 Bft) 95,65 %
07.10.2023 23:34 18,7 C 17,8 C 13,9 C 81 % 1022,6 hPa 0,0 l/m 0 min 0 min 0 W/m 12,9 km/h (3 Bft) 97,87 %
07.10.2023 23:36 18,6 C 17,8 C 13,9 C 81 % 1022,6 hPa 0,0 l/m 0 min 0 min 0 W/m 16,1 km/h (3 Bft) 97,87 %
07.10.2023 23:38 18,6 C 17,8 C 13,9 C 81 % 1022,6 hPa 0,0 l/m 0 min 0 min 0 W/m 12,9 km/h (3 Bft) 97,87 %
07.10.2023 23:40 18,6 C 17,8 C 13,9 C 81 % 1022,7 hPa 0,0 l/m 0 min 0 min 0 W/m 12,9 km/h (3 Bft) 97,87 %
07.10.2023 23:42 18,6 C 17,8 C 13,9 C 81 % 1022,7 hPa 0,0 l/m 0 min 0 min 0 W/m 9,7 km/h (2 Bft) 97,87 %
07.10.2023 23:44 18,6 C 17,8 C 13,9 C 81 % 1022,7 hPa 0,0 l/m 0 min 0 min 0 W/m 12,9 km/h (3 Bft) 97,87 %
07.10.2023 23:46 18,6 C 17,8 C 13,9 C 81 % 1022,7 hPa 0,0 l/m 0 min 0 min 0 W/m 12,9 km/h (3 Bft) 89,36 %
07.10.2023 23:48 18,6 C 17,8 C 13,9 C 81 % 1022,8 hPa 0,0 l/m 0 min 0 min 0 W/m 16,1 km/h (3 Bft) 97,83 %
07.10.2023 23:50 18,6 C 17,8 C 13,9 C 81 % 1022,7 hPa 0,0 l/m 0 min 0 min 0 W/m 16,1 km/h (3 Bft) 95,74 %
07.10.2023 23:52 18,6 C 17,8 C 13,9 C 81 % 1022,7 hPa 0,0 l/m 0 min 0 min 0 W/m 12,9 km/h (3 Bft) 95,74 %
07.10.2023 23:54 18,6 C 17,8 C 13,9 C 81 % 1022,7 hPa 0,0 l/m 0 min 0 min 0 W/m 12,9 km/h (3 Bft) 95,74 %
07.10.2023 23:56 18,6 C 17,8 C 13,9 C 81 % 1022,7 hPa 0,0 l/m 0 min 0 min 0 W/m 16,1 km/h (3 Bft) 95,74 %
07.10.2023 23:58 18,5 C 17,8 C 13,9 C 81 % 1022,7 hPa 0,0 l/m 0 min 0 min 0 W/m 22,5 km/h (4 Bft) 93,62 %
_ Min-Zeit 04:24 02:00 01:44 16:34 16:42 - - - - 05:26 11:10
Minimum _ 14,0 C 13,3 C 10,0 C 70 % 1021,3 hPa - - - - 3,2 km/h (1 Bft) 89,36 %
_ Max-Zeit 16:36 14:10 16:08 05:04 00:02 00:00 11:24 00:00 14:38 17:44 00:07
Maximum _ 22,1 C 21,7 C 17,2 C 93 % 1023,3 hPa 0,0 l/m 2 min 0 min 528 W/m 38,6 km/h
O-SO (5 Bft)
100,00 %
Durchschnitt _ 17,6 C 17,0 C 13,1 C 83 % 1022,4 hPa #0,0 l/m #3:56 h #0 min. 177 W/m 13,7 km/h (3 Bft) 97,49 %
© 2023 W. Hausmann